WD9GET Weather Reports


time (UTC)temp
C
wind
direction
speed
KPH
gust
KPH
rain 1hr
cm
rain 24hr
cm
rain mn
cm
humidity
%
barometer
mb
20260505153218 25 295 3.2 11.3 0.00 0.00 0.00 85 1009.4
20260505153118 25 207 3.2 11.3 0.00 0.00 0.00 85 1009.3
20260505153015 25 197 3.2 11.3 0.00 0.00 0.00 85 1009.3
20260505152915 25 238 3.2 9.7 0.00 0.00 0.00 85 1009.3
20260505152815 26 214 3.2 11.3 0.00 0.00 0.00 85 1009.3
20260505152715 26 169 3.2 11.3 0.00 0.00 0.00 85 1009.3
20260505152612 26 199 3.2 11.3 0.00 0.00 0.00 85 1009.3
20260505152516 26 188 3.2 11.3 0.00 0.00 0.00 85 1009.3
20260505152512 26 68 3.2 11.3 0.00 0.00 0.00 85 1009.3
20260505152409 26 349 3.2 11.3 0.00 0.00 0.00 84 1009.3
20260505152306 26 285 3.2 11.3 0.00 0.00 0.00 84 1009.3
20260505152203 26 288 3.2 11.3 0.00 0.00 0.00 84 1009.3
20260505152103 26 111 3.2 11.3 0.00 0.00 0.00 85 1009.2
20260505152013 26 302 3.2 11.3 0.00 0.00 0.00 84 1009.3
20260505152001 26 245 3.2 11.3 0.00 0.00 0.00 84 1009.3
20260505151901 26 144 3.2 11.3 0.00 0.00 0.00 85 1009.2
20260505151800 26 183 3.2 11.3 0.00 0.00 0.00 85 1009.3
20260505151741 26 273 3.2 14.5 0.00 0.00 0.00 84 1009.2
20260505151700 26 1 3.2 14.5 0.00 0.00 0.00 85 1009.3
20260505151619 26 175 3.2 14.5 0.00 0.00 0.00 84 1009.2
20260505151457 26 237 4.8 14.5 0.00 0.00 0.00 84 1009.2
20260505151354 26 193 4.8 14.5 0.00 0.00 0.00 83 1009.2
20260505151251 26 0 4.8 14.5 0.00 0.00 0.00 83 1009.2
20260505151152 26 272 4.8 14.5 0.00 0.00 0.00 84 1009.2
20260505151051 26 284 4.8 14.5 0.00 0.00 0.00 84 1009.1
20260505151011 26 237 3.2 14.5 0.00 0.00 0.00 84 1009.2
20260505150952 26 209 3.2 14.5 0.00 0.00 0.00 84 1009.2
20260505150848 26 121 3.2 14.5 0.00 0.00 0.00 84 1009.1
20260505150749 26 314 3.2 14.5 0.00 0.00 0.00 83 1009.0
20260505150648 26 174 3.2 14.5 0.00 0.00 0.00 83 1009.0
20260505150546 26 189 3.2 9.7 0.00 0.00 0.00 83 1009.0
20260505150511 26 246 3.2 9.7 0.00 0.00 0.00 83 1009.0
20260505150446 26 167 3.2 9.7 0.00 0.00 0.00 83 1009.1
20260505150346 26 95 3.2 9.7 0.00 0.00 0.00 83 1009.1
20260505150245 26 52 3.2 9.7 0.00 0.00 0.00 83 1009.1
20260505150142 26 50 3.2 9.7 0.00 0.00 0.00 83 1009.1
20260505140604 24 147 3.2 9.7 0.00 0.00 0.00 90 1009.3
20260505140504 24 133 3.2 9.7 0.00 0.00 0.00 90 1009.3
20260505140433 24 212 3.2 9.7 0.00 0.00 0.00 90 1009.3
20260505140405 24 175 3.2 9.7 0.00 0.00 0.00 90 1009.3
20260505140304 24 294 3.2 9.7 0.00 0.00 0.00 90 1009.3
20260505140204 24 231 3.2 9.7 0.00 0.00 0.00 90 1009.3
20260505130220 23 214 3.2 6.4 0.00 0.00 0.00 91 1009.0
20260505130120 23 179 3.2 8.0 0.00 0.00 0.00 91 1009.1
20260505124950 23 191 3.2 8.0 0.00 0.00 0.00 92 1009.0
20260505124851 23 175 3.2 8.0 0.00 0.00 0.00 92 1009.0
20260505124833 23 136 3.2 8.0 0.00 0.00 0.00 92 1008.9
20260505124747 23 168 3.2 8.0 0.00 0.00 0.00 92 1008.9
20260505124650 23 264 3.2 8.0 0.00 0.00 0.00 92 1008.9
20260505124535 23 175 3.2 8.0 0.00 0.00 0.00 92 1008.9
20260505124435 23 205 3.2 8.0 0.00 0.00 0.00 92 1008.8
20260505124336 23 219 3.2 8.0 0.00 0.00 0.00 92 1008.8
20260505124235 23 160 3.2 6.4 0.00 0.00 0.00 92 1008.8
20260505124135 23 237 3.2 6.4 0.00 0.00 0.00 92 1008.8
20260505124035 23 174 3.2 6.4 0.00 0.00 0.00 92 1008.8
20260505123935 23 187 1.6 4.8 0.00 0.00 0.00 93 1008.8
20260505123836 22 121 1.6 4.8 0.00 0.00 0.00 93 1008.8
20260505123735 22 293 1.6 4.8 0.00 0.00 0.00 93 1008.8
20260505123635 22 174 1.6 4.8 0.00 0.00 0.00 93 1008.8
20260505123535 22 118 1.6 4.8 0.00 0.00 0.00 93 1008.8
20260505123435 22 124 1.6 3.2 0.00 0.00 0.00 93 1008.8
20260505123336 22 108 1.6 3.2 0.00 0.00 0.00 93 1008.8
20260505123236 22 255 1.6 4.8 0.00 0.00 0.00 93 1008.8
20260505123136 22 173 1.6 4.8 0.00 0.00 0.00 93 1008.7
20260505123035 22 81 1.6 4.8 0.00 0.00 0.00 93 1008.7
20260505122935 22 186 1.6 4.8 0.00 0.00 0.00 93 1008.6
20260505122836 22 358 1.6 4.8 0.00 0.00 0.00 93 1008.6
20260505122736 22 153 1.6 6.4 0.00 0.00 0.00 92 1008.7
20260505122636 22 238 1.6 6.4 0.00 0.00 0.00 92 1008.7
20260505122558 22 120 1.6 6.4 0.00 0.00 0.00 92 1008.6
20260505122536 22 107 1.6 6.4 0.00 0.00 0.00 92 1008.7
20260505122446 22 175 1.6 6.4 0.00 0.00 0.00 92 1008.6
20260505122440 22 120 1.6 6.4 0.00 0.00 0.00 92 1008.6
20260505122221 22 148 1.6 6.4 0.00 0.00 0.00 92 1008.6
20260505122120 22 57 1.6 6.4 0.00 0.00 0.00 92 1008.7
20260505122006 22 120 1.6 6.4 0.00 0.00 0.00 92 1008.8
20260505121906 22 186 1.6 6.4 0.00 0.00 0.00 92 1008.8
20260505121820 22 126 1.6 6.4 0.00 0.00 0.00 92 1008.8
20260505121807 22 80 1.6 6.4 0.00 0.00 0.00 92 1008.8
20260505121705 22 257 1.6 4.8 0.00 0.00 0.00 92 1008.8
20260505121605 22 156 1.6 4.8 0.00 0.00 0.00 92 1008.8
20260505121505 22 82 1.6 4.8 0.00 0.00 0.00 92 1008.8
20260505121349 22 13 1.6 3.2 0.00 0.00 0.00 92 1008.7
20260505121304 22 13 1.6 4.8 0.00 0.00 0.00 92 1008.7
20260505121236 22 324 1.6 4.8 0.00 0.00 0.00 92 1008.7
20260505121135 22 144 1.6 4.8 0.00 0.00 0.00 92 1008.8
20260505120950 22 91 1.6 4.8 0.00 0.00 0.00 92 1008.8
20260505120851 22 52 1.6 4.8 0.00 0.00 0.00 92 1008.8
20260505120805 22 110 3.2 4.8 0.00 0.00 0.00 92 1008.9
20260505120751 22 157 3.2 4.8 0.00 0.00 0.00 92 1008.9
20260505120649 22 80 3.2 4.8 0.00 0.00 0.00 92 1008.9
20260505120550 22 220 3.2 4.8 0.00 0.00 0.00 92 1008.8
20260505120527 22 162 3.2 4.8 0.00 0.00 0.00 92 1008.8
20260505120449 22 151 3.2 4.8 0.00 0.00 0.00 92 1008.8
20260505120411 22 76 3.2 4.8 0.00 0.00 0.00 92 1008.8
20260505120236 22 178 3.2 4.8 0.00 0.00 0.00 92 1008.8
20260505120135 22 106 3.2 4.8 0.00 0.00 0.00 92 1008.8
20260505120036 22 103 3.2 4.8 0.00 0.00 0.00 92 1008.8
20260505120028 22 226 3.2 4.8 0.00 0.00 0.00 92 1008.8
20260505115936 22 189 3.2 4.8 0.00 0.00 0.00 92 1008.8
20260505115911 22 179 3.2 4.8 0.00 0.00 0.00 92 1008.8
20260505115721 22 139 3.2 4.8 0.00 0.00 0.00 92 1008.8
20260505115621 22 113 3.2 4.8 0.00 0.00 0.00 92 1008.8
20260505115522 22 189 3.2 4.8 0.00 0.00 0.00 92 1008.7
20260505115406 22 151 3.2 4.8 0.00 0.00 0.00 92 1008.7
20260505115306 22 207 3.2 4.8 0.00 0.00 0.00 92 1008.7
20260505115150 22 85 1.6 4.8 0.00 0.00 0.00 92 1008.7
20260505115050 22 123 1.6 4.8 0.00 0.00 0.00 92 1008.7
20260505114950 22 214 1.6 4.8 0.00 0.00 0.00 92 1008.6
20260505114836 22 209 3.2 6.4 0.00 0.00 0.00 92 1008.6
20260505114750 22 33 3.2 6.4 0.00 0.00 0.00 92 1008.6
20260505114722 22 270 3.2 6.4 0.00 0.00 0.00 93 1008.6
20260505114621 22 153 1.6 6.4 0.00 0.00 0.00 93 1008.6
20260505114521 22 202 1.6 6.4 0.00 0.00 0.00 93 1008.6
20260505114421 22 88 3.2 6.4 0.00 0.00 0.00 93 1008.6
20260505114321 22 105 3.2 6.4 0.00 0.00 0.00 93 1008.6
20260505114250 22 211 3.2 6.4 0.00 0.00 0.00 93 1008.6
20260505114220 22 330 3.2 6.4 0.00 0.00 0.00 93 1008.6
20260505114122 22 115 3.2 6.4 0.00 0.00 0.00 93 1008.7
20260505114021 22 203 3.2 6.4 0.00 0.00 0.00 93 1008.7
20260505113921 22 158 3.2 6.4 0.00 0.00 0.00 93 1008.7
20260505113807 22 228 3.2 6.4 0.00 0.00 0.00 93 1008.7
20260505113750 22 118 3.2 6.4 0.00 0.00 0.00 93 1008.7
20260505113706 22 66 3.2 6.4 0.00 0.00 0.00 93 1008.6
20260505113606 22 121 3.2 6.4 0.00 0.00 0.00 93 1008.6
20260505113506 22 115 3.2 6.4 0.00 0.00 0.00 93 1008.6
20260505113406 22 176 1.6 6.4 0.00 0.00 0.00 93 1008.5
20260505113306 22 106 1.6 3.2 0.00 0.00 0.00 93 1008.5
20260505113250 22 137 1.6 3.2 0.00 0.00 0.00 93 1008.5
20260505113206 22 110 1.6 3.2 0.00 0.00 0.00 93 1008.5
20260505113051 22 122 1.6 3.2 0.00 0.00 0.00 93 1008.5
20260505112950 22 183 1.6 4.8 0.00 0.00 0.00 93 1008.6
20260505112850 22 86 1.6 4.8 0.00 0.00 0.00 93 1008.7
20260505112750 22 222 1.6 4.8 0.00 0.00 0.00 93 1008.7
20260505112650 22 190 1.6 4.8 0.00 0.00 0.00 93 1008.8
20260505112549 22 0 1.6 4.8 0.00 0.00 0.00 93 1008.8
20260505112437 22 144 1.6 4.8 0.00 0.00 0.00 93 1008.8
20260505112306 22 267 1.6 4.8 0.00 0.00 0.00 93 1008.7
20260505112249 22 175 1.6 4.8 0.00 0.00 0.00 93 1008.7
20260505112206 22 136 1.6 4.8 0.00 0.00 0.00 93 1008.7
20260505112052 22 207 1.6 4.8 0.00 0.00 0.00 93 1008.7
20260505111951 22 177 1.6 3.2 0.00 0.00 0.00 92 1008.7
20260505111850 22 128 1.6 3.2 0.00 0.00 0.00 93 1008.8
20260505111750 22 232 1.6 3.2 0.00 0.00 0.00 92 1008.9
20260505111650 22 206 1.6 3.2 0.00 0.00 0.00 93 1008.9
20260505111522 22 258 1.6 4.8 0.00 0.00 0.00 92 1008.9
20260505111421 22 0 1.6 4.8 0.00 0.00 0.00 92 1009.0
20260505111321 22 261 1.6 4.8 0.00 0.00 0.00 92 1009.0
20260505111249 22 261 1.6 4.8 0.00 0.00 0.00 92 1008.9
20260505111221 22 231 1.6 4.8 0.00 0.00 0.00 92 1008.9
20260505111122 22 98 1.6 4.8 0.00 0.00 0.00 92 1008.9
20260505111022 22 156 1.6 4.8 0.00 0.00 0.00 92 1008.9
20260505110921 22 203 1.6 4.8 0.00 0.00 0.00 92 1008.9
20260505110822 22 198 1.6 4.8 0.00 0.00 0.00 92 1008.9
20260505110749 22 55 1.6 4.8 0.00 0.00 0.00 93 1008.9
20260505110721 22 103 1.6 4.8 0.00 0.00 0.00 93 1008.9
20260505110621 22 56 1.6 4.8 0.00 0.00 0.00 93 1008.9
20260505110522 22 221 1.6 4.8 0.00 0.00 0.00 93 1008.9
20260505110455 22 76 1.6 4.8 0.00 0.00 0.00 92 1008.9
20260505110422 22 174 1.6 4.8 0.00 0.00 0.00 93 1008.9
20260505110341 22 192 1.6 4.8 0.00 0.00 0.00 93 1008.9
20260505110207 22 197 1.6 4.8 0.00 0.00 0.00 92 1008.9
20260505102208 22 155 1.6 8.0 0.00 0.00 0.00 92 1008.9
20260505102151 22 202 1.6 8.0 0.00 0.00 0.00 92 1008.9
20260505102108 22 201 1.6 8.0 0.00 0.00 0.00 91 1008.9
20260505102007 22 199 1.6 8.0 0.00 0.00 0.00 91 1008.9
20260505101907 22 210 1.6 8.0 0.00 0.00 0.00 91 1008.9
20260505101758 22 193 1.6 8.0 0.00 0.00 0.00 91 1008.8
20260505101651 22 338 1.6 8.0 0.00 0.00 0.00 91 1008.8
20260505101632 22 160 1.6 3.2 0.00 0.00 0.00 91 1008.6
20260505101559 22 197 1.6 8.0 0.00 0.00 0.00 91 1008.8
20260505101516 22 85 1.6 8.0 0.00 0.00 0.00 91 1008.8
20260505101351 22 168 1.6 8.0 0.00 0.00 0.00 92 1008.7
20260505101301 22 187 1.6 3.2 0.00 0.00 0.00 92 1008.7
20260505101256 22 204 1.6 3.2 0.00 0.00 0.00 91 1008.6
20260505101053 22 176 1.6 4.8 0.00 0.00 0.00 91 1008.6
20260505100953 22 164 1.6 4.8 0.00 0.00 0.00 91 1008.5
20260505100852 22 72 1.6 4.8 0.00 0.00 0.00 91 1008.5
20260505100752 22 91 1.6 4.8 0.00 0.00 0.00 91 1008.5
20260505100650 22 212 1.6 4.8 0.00 0.00 0.00 91 1008.6
20260505100553 22 196 1.6 4.8 0.00 0.00 0.00 91 1008.6
20260505100452 22 180 1.6 4.8 0.00 0.00 0.00 91 1008.6
20260505100351 22 100 1.6 4.8 0.00 0.00 0.00 91 1008.6
20260505100251 22 84 1.6 4.8 0.00 0.00 0.00 91 1008.6
20260505100151 22 127 1.6 4.8 0.00 0.00 0.00 91 1008.6
20260505100052 22 219 1.6 4.8 0.00 0.00 0.00 91 1008.6
20260505095951 22 190 1.6 4.8 0.00 0.00 0.00 91 1008.6
20260505095900 22 89 3.2 6.4 0.00 0.00 0.00 91 1008.6
20260505095851 22 214 1.6 6.4 0.00 0.00 0.00 91 1008.6
20260505095751 22 205 3.2 6.4 0.00 0.00 0.00 91 1008.6
20260505095742 22 89 3.2 6.4 0.00 0.00 0.00 91 1008.6
20260505095508 22 146 3.2 6.4 0.00 0.00 0.00 91 1008.5
20260505095353 22 228 1.6 6.4 0.00 0.00 0.00 91 1008.5
20260505095252 22 173 3.2 6.4 0.00 0.00 0.00 91 1008.5
20260505095151 22 198 3.2 6.4 0.00 0.00 0.00 91 1008.6
20260505095122 22 148 3.2 6.4 0.00 0.00 0.00 91 1008.6
20260505095051 22 181 1.6 6.4 0.00 0.00 0.00 91 1008.6
20260505094951 22 192 1.6 6.4 0.00 0.00 0.00 91 1008.7
20260505094851 22 246 1.6 3.2 0.00 0.00 0.00 91 1008.8
20260505094752 22 195 1.6 3.2 0.00 0.00 0.00 91 1008.8
20260505094638 22 175 1.6 3.2 0.00 0.00 0.00 91 1008.8
20260505094622 22 176 1.6 3.2 0.00 0.00 0.00 91 1008.8
20260505094523 22 188 1.6 3.2 0.00 0.00 0.00 91 1008.9
20260505094422 22 152 1.6 3.2 0.00 0.00 0.00 91 1008.8
20260505094308 22 164 1.6 3.2 0.00 0.00 0.00 91 1008.8
20260505094208 22 121 1.6 3.2 0.00 0.00 0.00 91 1008.8
20260505094108 22 169 1.6 3.2 0.00 0.00 0.00 91 1008.8
20260505093951 22 202 1.6 3.2 0.00 0.00 0.00 91 1008.9
20260505093837 22 202 1.6 3.2 0.00 0.00 0.00 91 1008.9
20260505093723 22 154 1.6 3.2 0.00 0.00 0.00 91 1008.9
20260505093607 22 212 1.6 3.2 0.00 0.00 0.00 91 1008.9
20260505093550 22 111 1.6 3.2 0.00 0.00 0.00 91 1009.0
20260505093454 22 211 1.6 3.2 0.00 0.00 0.00 91 1009.0
20260505093352 22 211 1.6 3.2 0.00 0.00 0.00 91 1009.0
20260505093238 22 183 1.6 3.2 0.00 0.00 0.00 91 1009.0
20260505093139 22 109 1.6 4.8 0.00 0.00 0.00 91 1009.0
20260505093038 22 179 1.6 4.8 0.00 0.00 0.00 91 1009.0
20260505092923 22 201 1.6 4.8 0.00 0.00 0.00 91 1009.0
20260505092751 22 157 1.6 4.8 0.00 0.00 0.00 91 1009.0
20260505092639 22 157 1.6 4.8 0.00 0.00 0.00 91 1009.0
20260505092538 22 196 1.6 4.8 0.00 0.00 0.00 91 1009.0
20260505092438 22 138 1.6 4.8 0.00 0.00 0.00 91 1009.0
20260505092338 22 159 1.6 4.8 0.00 0.00 0.00 91 1008.9
20260505092238 22 201 1.6 4.8 0.00 0.00 0.00 91 1008.9
20260505092139 22 73 1.6 4.8 0.00 0.00 0.00 91 1008.9
20260505092023 22 216 1.6 4.8 0.00 0.00 0.00 91 1008.8
20260505091908 22 43 1.6 4.8 0.00 0.00 0.00 91 1008.8
20260505091808 22 356 1.6 4.8 0.00 0.00 0.00 91 1008.8
20260505091654 22 162 1.6 4.8 0.00 0.00 0.00 91 1008.8
20260505091554 22 102 1.6 4.8 0.00 0.00 0.00 91 1008.8
20260505091507 22 209 1.6 4.8 0.00 0.00 0.00 91 1008.8
20260505091457 22 96 1.6 3.2 0.00 0.00 0.00 91 1008.9
20260505091453 22 221 1.6 4.8 0.00 0.00 0.00 91 1008.8
20260505091353 22 217 1.6 4.8 0.00 0.00 0.00 91 1008.9
20260505091337 22 59 1.6 3.2 0.00 0.00 0.00 91 1008.9
20260505091153 22 285 1.6 3.2 0.00 0.00 0.00 91 1008.9
20260505091112 22 86 1.6 3.2 0.00 0.00 0.00 91 1008.9
20260505090953 22 229 1.6 3.2 0.00 0.00 0.00 91 1008.9
20260505090854 22 178 1.6 4.8 0.00 0.00 0.00 91 1008.9
20260505090754 22 197 1.6 4.8 0.00 0.00 0.00 91 1008.9
20260505090653 22 121 1.6 4.8 0.00 0.00 0.00 91 1008.9
20260505090552 22 76 1.6 4.8 0.00 0.00 0.00 91 1008.9
20260505090507 22 99 1.6 4.8 0.00 0.00 0.00 91 1008.9
20260505090438 22 176 1.6 4.8 0.00 0.00 0.00 91 1009.0
20260505090339 22 92 1.6 4.8 0.00 0.00 0.00 91 1009.0
20260505090238 22 189 1.6 4.8 0.00 0.00 0.00 91 1009.0
20260505090138 22 217 1.6 4.8 0.00 0.00 0.00 91 1009.0
20260505090038 22 171 1.6 4.8 0.00 0.00 0.00 91 1008.9
20260505090007 22 166 1.6 4.8 0.00 0.00 0.00 91 1008.9
20260505085938 22 205 1.6 4.8 0.00 0.00 0.00 91 1008.9
20260505085839 22 218 1.6 4.8 0.00 0.00 0.00 91 1008.9
20260505085654 22 106 1.6 4.8 0.00 0.00 0.00 91 1008.9
20260505085553 22 153 1.6 4.8 0.00 0.00 0.00 91 1008.9
20260505085457 22 208 1.6 4.8 0.00 0.00 0.00 92 1008.9
20260505085451 22 202 1.6 4.8 0.00 0.00 0.00 92 1008.9
20260505085354 22 229 1.6 4.8 0.00 0.00 0.00 92 1008.9
20260505085254 22 286 1.6 4.8 0.00 0.00 0.00 92 1008.9
20260505085154 22 79 1.6 4.8 0.00 0.00 0.00 92 1008.9
20260505085054 22 234 1.6 4.8 0.00 0.00 0.00 92 1008.9
20260505084952 22 203 1.6 4.8 0.00 0.00 0.00 92 1008.8
20260505084852 22 155 1.6 4.8 0.00 0.00 0.00 92 1008.8
20260505084753 22 246 1.6 6.4 0.00 0.00 0.00 91 1008.8
20260505084639 22 220 1.6 6.4 0.00 0.00 0.00 91 1008.8
20260505084539 22 28 1.6 6.4 0.00 0.00 0.00 91 1008.8
20260505084423 22 210 1.6 6.4 0.00 0.00 0.00 91 1008.8
20260505084324 22 245 1.6 6.4 0.00 0.00 0.00 91 1008.8
20260505084224 22 46 1.6 6.4 0.00 0.00 0.00 91 1008.7
20260505084124 22 150 1.6 6.4 0.00 0.00 0.00 91 1008.7
20260505084023 22 142 1.6 6.4 0.00 0.00 0.00 91 1008.7
20260505083923 22 187 1.6 6.4 0.00 0.00 0.00 92 1008.8
20260505083824 22 185 1.6 6.4 0.00 0.00 0.00 91 1008.8
20260505083709 22 251 1.6 3.2 0.00 0.00 0.00 91 1008.8
20260505083614 22 244 1.6 3.2 0.00 0.00 0.00 91 1008.8
20260505083509 22 171 1.6 3.2 0.00 0.00 0.00 91 1008.8
20260505083422 22 99 1.6 4.8 0.00 0.00 0.00 91 1008.8
20260505083409 22 162 1.6 4.8 0.00 0.00 0.00 91 1008.8
20260505083254 22 71 1.6 4.8 0.00 0.00 0.00 91 1008.9
20260505083139 22 143 1.6 4.8 0.00 0.00 0.00 91 1008.9
20260505083131 22 217 1.6 4.8 0.00 0.00 0.00 91 1008.9
20260505083024 22 262 1.6 4.8 0.00 0.00 0.00 91 1008.9
20260505083013 22 208 1.6 4.8 0.00 0.00 0.00 91 1008.9
20260505082824 22 183 1.6 6.4 0.00 0.00 0.00 91 1008.9
20260505082723 22 58 1.6 6.4 0.00 0.00 0.00 91 1008.9
20260505082629 22 186 1.6 6.4 0.00 0.00 0.00 91 1008.9
20260505082624 22 251 1.6 6.4 0.00 0.00 0.00 91 1008.9
20260505082518 22 210 1.6 6.4 0.00 0.00 0.00 91 1008.9
20260505082513 22 186 1.6 6.4 0.00 0.00 0.00 91 1008.9
20260505082309 22 0 1.6 6.4 0.00 0.00 0.00 91 1009.0
20260505082154 22 219 1.6 6.4 0.00 0.00 0.00 91 1009.0
20260505082055 22 209 1.6 6.4 0.00 0.00 0.00 91 1009.0
20260505081954 22 188 1.6 6.4 0.00 0.00 0.00 91 1009.0
20260505081908 22 169 1.6 6.4 0.00 0.00 0.00 91 1009.0
20260505081854 22 167 1.6 6.4 0.00 0.00 0.00 91 1009.0
20260505081754 22 178 1.6 6.4 0.00 0.00 0.00 91 1009.0
20260505081654 22 346 1.6 4.8 0.00 0.00 0.00 91 1009.0
20260505081553 22 200 1.6 4.8 0.00 0.00 0.00 91 1009.0
20260505081454 22 77 1.6 4.8 0.00 0.00 0.00 91 1009.1
20260505081407 22 246 1.6 4.8 0.00 0.00 0.00 90 1009.1
20260505081359 22 68 1.6 4.8 0.00 0.00 0.00 90 1009.1
20260505081239 22 189 1.6 4.8 0.00 0.00 0.00 90 1009.1
20260505081129 22 68 1.6 4.8 0.00 0.00 0.00 90 1009.1
20260505081124 22 280 1.6 4.8 0.00 0.00 0.00 90 1009.1
20260505081024 22 214 1.6 4.8 0.00 0.00 0.00 90 1009.0
20260505081013 22 222 1.6 4.8 0.00 0.00 0.00 90 1009.1
20260505080824 22 31 1.6 4.8 0.00 0.00 0.00 90 1009.1
20260505080724 22 142 1.6 3.2 0.00 0.00 0.00 90 1009.1
20260505080625 22 170 1.6 3.2 0.00 0.00 0.00 90 1009.1
20260505080524 22 0 1.6 3.2 0.00 0.00 0.00 90 1009.2
20260505080354 22 277 1.6 3.2 0.00 0.00 0.00 90 1009.2
20260505075954 22 181 1.6 4.8 0.00 0.00 0.00 90 1009.2
20260505075809 22 180 1.6 4.8 0.00 0.00 0.00 90 1009.2
20260505075753 22 174 1.6 4.8 0.00 0.00 0.00 90 1009.2
20260505075709 22 174 1.6 4.8 0.00 0.00 0.00 90 1009.2
20260505075609 22 134 1.6 4.8 0.00 0.00 0.00 90 1009.2
20260505075454 22 226 1.6 4.8 0.00 0.00 0.00 90 1009.2
20260505075355 22 148 1.6 4.8 0.00 0.00 0.00 90 1009.2
20260505075254 22 213 1.6 3.2 0.00 0.00 0.00 90 1009.2
20260505075223 22 144 1.6 3.2 0.00 0.00 0.00 90 1009.2
20260505075154 22 144 1.6 3.2 0.00 0.00 0.00 90 1009.2
20260505075053 22 199 1.6 3.2 0.00 0.00 0.00 90 1009.2
20260505074953 22 38 1.6 3.2 0.00 0.00 0.00 90 1009.2
20260505074854 22 173 1.6 3.2 0.00 0.00 0.00 90 1009.2
20260505074753 22 148 1.6 3.2 0.00 0.00 0.00 90 1009.2
20260505074723 22 204 1.6 3.2 0.00 0.00 0.00 90 1009.2
20260505074653 22 187 1.6 3.2 0.00 0.00 0.00 90 1009.2
20260505074553 22 211 1.6 3.2 0.00 0.00 0.00 90 1009.2
20260505074453 22 66 1.6 3.2 0.00 0.00 0.00 90 1009.2
20260505074353 22 199 1.6 3.2 0.00 0.00 0.00 90 1009.2
20260505074253 22 303 1.6 3.2 0.00 0.00 0.00 90 1009.3
20260505074224 22 303 1.6 6.4 0.00 0.00 0.00 90 1009.3
20260505074153 22 225 1.6 6.4 0.00 0.00 0.00 90 1009.3
20260505074053 22 300 1.6 6.4 0.00 0.00 0.00 90 1009.2
20260505073953 22 62 1.6 6.4 0.00 0.00 0.00 90 1009.2
20260505073841 22 242 1.6 6.4 0.00 0.00 0.00 90 1009.2
20260505073740 22 168 1.6 6.4 0.00 0.00 0.00 90 1009.3
20260505073724 22 183 1.6 6.4 0.00 0.00 0.00 90 1009.3
20260505073640 22 18 1.6 6.4 0.00 0.00 0.00 90 1009.3
20260505073524 22 0 1.6 6.4 0.00 0.00 0.00 90 1009.3
20260505073409 22 140 1.6 6.4 0.00 0.00 0.00 90 1009.3
20260505073254 22 296 1.6 6.4 0.00 0.00 0.00 90 1009.3
20260505073223 22 189 1.6 4.8 0.00 0.00 0.00 90 1009.3
20260505073154 22 151 1.6 4.8 0.00 0.00 0.00 90 1009.3
20260505073054 22 161 1.6 4.8 0.00 0.00 0.00 90 1009.3
20260505072954 22 254 1.6 6.4 0.00 0.00 0.00 90 1009.4
20260505072854 22 82 1.6 6.4 0.00 0.00 0.00 90 1009.4
20260505072754 22 98 3.2 6.4 0.00 0.00 0.00 89 1009.4
20260505072708 22 191 1.6 6.4 0.00 0.00 0.00 89 1009.4
20260505072654 22 166 3.2 6.4 0.00 0.00 0.00 89 1009.4
20260505072554 22 12 3.2 8.0 0.00 0.00 0.00 90 1009.4
20260505072440 22 142 3.2 8.0 0.00 0.00 0.00 90 1009.4
20260505072429 22 231 1.6 8.0 0.00 0.00 0.00 90 1009.5
20260505072325 22 173 3.2 8.0 0.00 0.00 0.00 90 1009.4
20260505072315 22 231 1.6 8.0 0.00 0.00 0.00 90 1009.5
20260505072110 22 106 1.6 8.0 0.00 0.00 0.00 90 1009.5
20260505071955 22 205 1.6 8.0 0.00 0.00 0.00 90 1009.5
20260505071855 22 155 1.6 8.0 0.00 0.00 0.00 90 1009.5
20260505071753 22 0 1.6 8.0 0.00 0.00 0.00 90 1009.5
20260505071657 22 75 1.6 8.0 0.00 0.00 0.00 90 1009.5
20260505071652 22 90 1.6 8.0 0.00 0.00 0.00 90 1009.5
20260505071552 22 193 1.6 6.4 0.00 0.00 0.00 90 1009.5
20260505071528 22 155 1.6 6.4 0.00 0.00 0.00 90 1009.6
20260505071524 22 142 1.6 6.4 0.00 0.00 0.00 90 1009.6
20260505071520 22 281 1.6 6.4 0.00 0.00 0.00 90 1009.6
20260505071515 22 187 1.6 6.4 0.00 0.00 0.00 90 1009.6
20260505071511 22 157 1.6 6.4 0.00 0.00 0.00 90 1009.5
20260505071044 22 83 1.6 6.4 0.00 0.00 0.00 90 1009.6
20260505070944 22 167 1.6 6.4 0.00 0.00 0.00 90 1009.7
20260505070841 22 138 1.6 6.4 0.00 0.00 0.00 90 1009.7
20260505070734 22 167 1.6 6.4 0.00 0.00 0.00 90 1009.7
20260505070654 22 93 1.6 6.4 0.00 0.00 0.00 90 1009.7
20260505070634 22 56 1.6 6.4 0.00 0.00 0.00 90 1009.7
20260505070534 22 129 1.6 6.4 0.00 0.00 0.00 90 1009.7
20260505070434 22 0 1.6 6.4 0.00 0.00 0.00 90 1009.7
20260505070332 22 79 1.6 6.4 0.00 0.00 0.00 89 1009.7
20260505070231 22 79 1.6 4.8 0.00 0.00 0.00 89 1009.7
20260505070152 22 187 1.6 4.8 0.00 0.00 0.00 89 1009.7
20260505070132 22 116 1.6 4.8 0.00 0.00 0.00 89 1009.7
20260505070032 22 269 1.6 4.8 0.00 0.00 0.00 89 1009.7
20260505065926 22 206 1.6 4.8 0.00 0.00 0.00 89 1009.7
20260505065826 22 0 1.6 4.8 0.00 0.00 0.00 89 1009.7
20260505065726 22 179 1.6 4.8 0.00 0.00 0.00 89 1009.8
20260505065651 22 195 1.6 4.8 0.00 0.00 0.00 89 1009.8
20260505065619 22 196 1.6 4.8 0.00 0.00 0.00 89 1009.8
20260505065511 22 205 1.6 4.8 0.00 0.00 0.00 89 1009.8
20260505065415 22 74 1.6 8.0 0.00 0.00 0.00 89 1009.9
20260505065408 22 165 1.6 8.0 0.00 0.00 0.00 89 1009.9
20260505065308 22 0 1.6 8.0 0.00 0.00 0.00 89 1009.9
20260505065255 22 179 1.6 8.0 0.00 0.00 0.00 89 1009.9
20260505065105 22 0 1.6 8.0 0.00 0.00 0.00 89 1009.9
20260505064959 22 211 1.6 8.0 0.00 0.00 0.00 89 1009.9
20260505064856 22 189 1.6 8.0 0.00 0.00 0.00 89 1010.0
20260505064755 22 0 1.6 8.0 0.00 0.00 0.00 89 1010.0
20260505064649 22 183 1.6 8.0 0.00 0.00 0.00 89 1010.0
20260505064553 22 64 1.6 8.0 0.00 0.00 0.00 89 1010.0
20260505064452 22 0 1.6 8.0 0.00 0.00 0.00 89 1010.0
20260505064350 22 290 1.6 6.4 0.00 0.00 0.00 89 1010.0
20260505064247 21 123 1.6 6.4 0.00 0.00 0.00 89 1010.0
20260505064147 21 204 3.2 6.4 0.00 0.00 0.00 89 1010.0
20260505064041 21 163 3.2 6.4 0.00 0.00 0.00 89 1010.0
20260505063939 21 174 3.2 6.4 0.00 0.00 0.00 89 1010.1
20260505063839 21 61 1.6 6.4 0.00 0.00 0.00 89 1010.1
20260505063729 21 147 3.2 6.4 0.00 0.00 0.00 89 1010.1
20260505063643 21 54 1.6 6.4 0.00 0.00 0.00 89 1010.1
20260505063629 21 146 1.6 6.4 0.00 0.00 0.00 89 1010.1
20260505063521 21 154 1.6 6.4 0.00 0.00 0.00 89 1010.1
20260505063414 21 231 1.6 6.4 0.00 0.00 0.00 90 1010.1
20260505063308 21 116 1.6 6.4 0.00 0.00 0.00 90 1010.1
20260505063208 21 184 1.6 6.4 0.00 0.00 0.00 90 1010.3
20260505063130 21 73 1.6 6.4 0.00 0.00 0.00 90 1010.3
20260505063053 21 204 1.6 6.4 0.00 0.00 0.00 90 1010.3
20260505062953 21 188 1.6 6.4 0.00 0.00 0.00 90 1010.3
20260505062853 21 194 1.6 6.4 0.00 0.00 0.00 90 1010.3
20260505062753 21 147 1.6 6.4 0.00 0.00 0.00 90 1010.3
20260505062650 21 190 1.6 6.4 0.00 0.00 0.00 89 1010.3
20260505062619 21 218 1.6 6.4 0.00 0.00 0.00 89 1010.3
20260505062550 21 170 1.6 6.4 0.00 0.00 0.00 89 1010.3
20260505062450 21 195 1.6 6.4 0.00 0.00 0.00 89 1010.3
20260505062349 21 0 1.6 6.4 0.00 0.00 0.00 89 1010.3
20260505062244 21 177 1.6 8.0 0.00 0.00 0.00 89 1010.3
20260505062145 21 65 3.2 9.7 0.00 0.00 0.00 89 1010.3
20260505062119 21 347 3.2 9.7 0.00 0.00 0.00 89 1010.3
20260505062045 21 227 3.2 9.7 0.00 0.00 0.00 89 1010.3
20260505061944 21 162 3.2 9.7 0.00 0.00 0.00 89 1010.3
20260505061844 21 214 3.2 9.7 0.00 0.00 0.00 89 1010.3
20260505061744 21 182 3.2 9.7 0.00 0.00 0.00 89 1010.3
20260505061644 21 140 1.6 9.7 0.00 0.00 0.00 89 1010.3
20260505061619 21 61 1.6 9.7 0.00 0.00 0.00 89 1010.3
20260505061544 21 209 1.6 9.7 0.00 0.00 0.00 89 1010.3
20260505061444 21 177 1.6 9.7 0.00 0.00 0.00 89 1010.3
20260505061344 21 356 1.6 9.7 0.00 0.00 0.00 90 1010.3
20260505061241 21 220 1.6 9.7 0.00 0.00 0.00 90 1010.3
20260505061141 21 189 1.6 6.4 0.00 0.00 0.00 90 1010.4
20260505061117 21 110 1.6 4.8 0.00 0.00 0.00 90 1010.4
20260505061041 21 112 1.6 4.8 0.00 0.00 0.00 90 1010.4
20260505060938 21 172 1.6 4.8 0.00 0.00 0.00 90 1010.4
20260505060838 21 105 1.6 4.8 0.00 0.00 0.00 90 1010.4
20260505060738 21 206 1.6 6.4 0.00 0.00 0.00 89 1010.4
20260505060638 21 43 1.6 6.4 0.00 0.00 0.00 89 1010.4
20260505060617 21 271 1.6 6.4 0.00 0.00 0.00 89 1010.4
20260505060535 21 197 1.6 6.4 0.00 0.00 0.00 89 1010.4
20260505060435 21 113 1.6 9.7 0.00 0.00 0.00 89 1010.4
20260505060343 21 96 1.6 9.7 0.00 0.00 0.00 89 1010.3
20260505060335 21 102 1.6 9.7 0.00 0.00 0.00 89 1010.3
20260505060235 21 282 1.6 9.7 0.00 0.00 0.00 89 1010.3
20260505060222 21 182 1.6 9.7 0.00 0.00 0.00 89 1010.3
20260505060030 21 236 1.6 9.7 0.00 0.00 0.00 89 1010.3
20260505055929 21 195 1.6 9.7 0.00 0.00 0.00 90 1010.3
20260505055829 21 118 1.6 9.7 0.00 0.00 0.00 89 1010.3
20260505055729 21 243 1.6 9.7 0.00 0.00 0.00 89 1010.4
20260505055626 21 35 1.6 9.7 0.00 0.00 0.00 90 1010.4
20260505055613 21 158 1.6 9.7 0.00 0.00 0.00 90 1010.4
20260505055527 21 200 1.6 9.7 0.00 0.00 0.00 90 1010.4
20260505055424 21 161 1.6 4.8 0.00 0.00 0.00 90 1010.4
20260505055321 21 61 1.6 4.8 0.00 0.00 0.00 90 1010.4
20260505055221 21 139 1.6 6.4 0.00 0.00 0.00 90 1010.4
20260505055115 21 167 1.6 6.4 0.00 0.00 0.00 89 1010.4
20260505055110 21 193 1.6 6.4 0.00 0.00 0.00 89 1010.4
20260505055014 21 213 1.6 6.4 0.00 0.00 0.00 89 1010.4
20260505054911 21 0 1.6 6.4 0.00 0.00 0.00 90 1010.4
20260505054812 21 190 1.6 6.4 0.00 0.00 0.00 90 1010.4
20260505054711 21 261 1.6 6.4 0.00 0.00 0.00 89 1010.4
20260505054609 21 119 1.6 6.4 0.00 0.00 0.00 89 1010.4
20260505054506 21 184 1.6 6.4 0.00 0.00 0.00 89 1010.4
20260505054405 21 0 1.6 6.4 0.00 0.00 0.00 90 1010.4
20260505054300 21 200 1.6 6.4 0.00 0.00 0.00 90 1010.4
20260505054200 21 192 1.6 6.4 0.00 0.00 0.00 90 1010.4
20260505054107 21 135 1.6 6.4 0.00 0.00 0.00 89 1010.4
20260505054100 21 135 1.6 6.4 0.00 0.00 0.00 89 1010.4
20260505053959 21 202 1.6 6.4 0.00 0.00 0.00 89 1010.4
20260505053857 21 307 1.6 6.4 0.00 0.00 0.00 89 1010.5
20260505053755 21 189 1.6 6.4 0.00 0.00 0.00 89 1010.5
20260505053651 21 170 1.6 6.4 0.00 0.00 0.00 89 1010.5
20260505053608 21 221 1.6 8.0 0.00 0.00 0.00 89 1010.5
20260505053551 21 153 1.6 8.0 0.00 0.00 0.00 89 1010.5
20260505053451 21 190 1.6 8.0 0.00 0.00 0.00 89 1010.5
20260505053351 21 40 1.6 8.0 0.00 0.00 0.00 89 1010.5
20260505053248 21 227 1.6 8.0 0.00 0.00 0.00 89 1010.5
20260505053148 21 194 1.6 8.0 0.00 0.00 0.00 89 1010.5
20260505053105 21 186 1.6 8.0 0.00 0.00 0.00 89 1010.5
20260505053048 21 148 1.6 8.0 0.00 0.00 0.00 89 1010.5
20260505052948 21 186 1.6 8.0 0.00 0.00 0.00 89 1010.5
20260505052839 21 149 1.6 8.0 0.00 0.00 0.00 89 1010.5
20260505052739 21 0 1.6 8.0 0.00 0.00 0.00 89 1010.5
20260505052639 21 188 1.6 8.0 0.00 0.00 0.00 89 1010.5
20260505052605 21 178 1.6 6.4 0.00 0.00 0.00 89 1010.5
20260505052539 21 56 1.6 6.4 0.00 0.00 0.00 89 1010.5
20260505052438 21 89 1.6 6.4 0.00 0.00 0.00 89 1010.5
20260505052336 21 181 1.6 6.4 0.00 0.00 0.00 89 1010.5
20260505052236 21 216 1.6 6.4 0.00 0.00 0.00 89 1010.5
20260505052135 21 0 1.6 6.4 0.00 0.00 0.00 89 1010.5
20260505052105 21 83 1.6 6.4 0.00 0.00 0.00 89 1010.5
20260505052037 21 118 1.6 6.4 0.00 0.00 0.00 89 1010.5
20260505051936 21 0 1.6 6.4 0.00 0.00 0.00 89 1010.5
20260505051827 21 196 1.6 6.4 0.00 0.00 0.00 89 1010.5
20260505051728 21 216 1.6 6.4 0.00 0.00 0.00 89 1010.5
20260505051627 21 0 1.6 6.4 0.00 0.00 0.00 89 1010.5
20260505051602 21 224 1.6 6.4 0.00 0.00 0.00 89 1010.5
20260505051527 21 141 1.6 6.4 0.00 0.00 0.00 89 1010.5
20260505051427 21 185 1.6 6.4 0.00 0.00 0.00 89 1010.5
20260505051327 21 170 1.6 6.4 0.00 0.00 0.00 89 1010.5
20260505051224 21 224 1.6 8.0 0.00 0.00 0.00 89 1010.5
20260505051106 21 192 1.6 8.0 0.00 0.00 0.00 89 1010.5
20260505051059 21 86 1.6 8.0 0.00 0.00 0.00 89 1010.5
20260505051006 21 0 1.6 8.0 0.00 0.00 0.00 89 1010.5
20260505050907 21 47 1.6 8.0 0.00 0.00 0.00 89 1010.5
20260505050828 21 0 1.6 8.0 0.00 0.00 0.00 89 1010.5
20260505050806 21 145 1.6 8.0 0.00 0.00 0.00 89 1010.5
20260505050710 21 271 1.6 8.0 0.00 0.00 0.00 89 1010.5
20260505050705 21 0 1.6 8.0 0.00 0.00 0.00 89 1010.5
20260505050540 21 306 1.6 8.0 0.00 0.00 0.00 89 1010.5
20260505050507 21 157 1.6 8.0 0.00 0.00 0.00 89 1010.5
20260505050426 21 33 1.6 8.0 0.00 0.00 0.00 89 1010.5
20260505050303 21 169 1.6 8.0 0.00 0.00 0.00 89 1010.5
20260505050205 21 182 1.6 8.0 0.00 0.00 0.00 89 1010.5
20260505041728 20 108 1.6 3.2 0.00 0.00 0.00 89 1010.7
20260505041625 20 0 1.6 3.2 0.00 0.00 0.00 89 1010.7
20260505041554 20 135 1.6 3.2 0.00 0.00 0.00 89 1010.7
20260505041524 20 0 1.6 3.2 0.00 0.00 0.00 89 1010.7
20260505041419 20 199 1.6 3.2 0.00 0.00 0.00 89 1010.7
20260505041316 20 113 1.6 3.2 0.00 0.00 0.00 89 1010.7
20260505041211 20 109 1.6 6.4 0.00 0.00 0.00 89 1010.8
20260505041110 20 55 1.6 6.4 0.00 0.00 0.00 89 1010.8
20260505041051 20 240 1.6 6.4 0.00 0.00 0.00 89 1010.8
20260505041010 20 154 1.6 6.4 0.00 0.00 0.00 89 1010.8
20260505040910 20 0 1.6 6.4 0.00 0.00 0.00 89 1010.9
20260505040811 20 87 1.6 6.4 0.00 0.00 0.00 89 1010.9
20260505040710 20 207 1.6 6.4 0.00 0.00 0.00 89 1010.9
20260505040607 20 127 1.6 6.4 0.00 0.00 0.00 89 1010.9
20260505040548 20 100 1.6 6.4 0.00 0.00 0.00 89 1010.9
20260505040507 20 0 1.6 6.4 0.00 0.00 0.00 89 1010.9
20260505040407 20 0 1.6 6.4 0.00 0.00 0.00 89 1011.0
20260505040309 20 0 1.6 6.4 0.00 0.00 0.00 89 1011.0
20260505040202 20 98 1.6 3.2 0.00 0.00 0.00 89 1011.0
20260505040101 20 0 1.6 3.2 0.00 0.00 0.00 89 1011.0
20260505040048 20 40 1.6 3.2 0.00 0.00 0.00 89 1011.0
20260505035959 20 226 1.6 3.2 0.00 0.00 0.00 89 1011.0
20260505035859 20 192 0.0 3.2 0.00 0.00 0.00 89 1011.0
20260505035758 20 69 0.0 3.2 0.00 0.00 0.00 89 1011.0
20260505035659 20 357 0.0 3.2 0.00 0.00 0.00 89 1011.0
20260505035558 20 6 0.0 3.2 0.00 0.00 0.00 89 1011.0
20260505035548 20 284 0.0 3.2 0.00 0.00 0.00 89 1011.0
20260505035459 20 92 0.0 3.2 0.00 0.00 0.00 89 1011.0
20260505035357 20 81 0.0 3.2 0.00 0.00 0.00 89 1011.0
20260505035257 20 0 0.0 3.2 0.00 0.00 0.00 89 1011.0
20260505035157 20 118 0.0 3.2 0.00 0.00 0.00 88 1011.1
20260505035058 20 84 0.0 6.4 0.00 0.00 0.00 88 1011.1
20260505035052 20 0 0.0 6.4 0.00 0.00 0.00 88 1011.1
20260505034955 20 0 1.6 6.4 0.00 0.00 0.00 88 1011.1
20260505034853 20 265 1.6 6.4 0.00 0.00 0.00 88 1011.1
20260505034750 20 183 1.6 6.4 0.00 0.00 0.00 88 1011.1
20260505034647 20 274 1.6 6.4 0.00 0.00 0.00 88 1011.1
20260505034547 20 178 1.6 6.4 0.00 0.00 0.00 88 1011.1
20260505034447 20 0 1.6 6.4 0.00 0.00 0.00 88 1011.2
20260505034347 20 76 1.6 6.4 0.00 0.00 0.00 88 1011.2
20260505034247 20 66 1.6 6.4 0.00 0.00 0.00 88 1011.2
20260505034144 20 250 1.6 4.8 0.00 0.00 0.00 88 1011.2
20260505034048 20 188 1.6 3.2 0.00 0.00 0.00 88 1011.1
20260505034041 20 36 1.6 3.2 0.00 0.00 0.00 88 1011.1
20260505033941 20 165 1.6 3.2 0.00 0.00 0.00 88 1011.1
20260505033834 20 0 1.6 3.2 0.00 0.00 0.00 88 1011.1
20260505033734 20 87 0.0 3.2 0.00 0.00 0.00 88 1011.1
20260505033634 20 288 0.0 3.2 0.00 0.00 0.00 88 1011.1
20260505033548 20 199 0.0 3.2 0.00 0.00 0.00 88 1011.1
20260505033532 20 35 0.0 3.2 0.00 0.00 0.00 88 1011.1
20260505033426 20 50 0.0 3.2 0.00 0.00 0.00 88 1011.1
20260505033326 20 189 0.0 3.2 0.00 0.00 0.00 88 1011.1
20260505033222 20 0 0.0 3.2 0.00 0.00 0.00 88 1011.1
20260505033120 20 87 0.0 3.2 0.00 0.00 0.00 88 1011.1
20260505033043 20 104 0.0 3.2 0.00 0.00 0.00 88 1011.1
20260505033019 20 179 0.0 3.2 0.00 0.00 0.00 88 1011.1
20260505032919 20 0 0.0 3.2 0.00 0.00 0.00 88 1011.1
20260505032817 20 0 0.0 4.8 0.00 0.00 0.00 88 1011.1
20260505032714 20 255 0.0 4.8 0.00 0.00 0.00 88 1011.1
20260505032614 20 0 0.0 4.8 0.00 0.00 0.00 88 1011.1
20260505032542 21 0 0.0 4.8 0.00 0.00 0.00 88 1011.1
20260505032511 21 123 0.0 4.8 0.00 0.00 0.00 88 1011.1
20260505032411 21 205 0.0 4.8 0.00 0.00 0.00 87 1011.1
20260505032311 21 0 0.0 4.8 0.00 0.00 0.00 87 1011.2
20260505032211 21 0 1.6 4.8 0.00 0.00 0.00 87 1011.1
20260505032108 21 272 1.6 4.8 0.00 0.00 0.00 87 1011.1
20260505032043 21 0 1.6 4.8 0.00 0.00 0.00 87 1011.1
20260505032005 21 288 1.6 4.8 0.00 0.00 0.00 87 1011.1
20260505031858 21 51 1.6 4.8 0.00 0.00 0.00 87 1011.1
20260505031759 21 86 1.6 3.2 0.00 0.00 0.00 87 1011.1
20260505031659 21 293 1.6 3.2 0.00 0.00 0.00 87 1011.1
20260505031559 21 65 1.6 3.2 0.00 0.00 0.00 87 1011.1
20260505031542 21 0 1.6 3.2 0.00 0.00 0.00 87 1011.1
20260505031456 21 69 1.6 3.2 0.00 0.00 0.00 87 1011.1
20260505031353 21 78 1.6 3.2 0.00 0.00 0.00 87 1011.1
20260505031253 21 92 1.6 4.8 0.00 0.00 0.00 87 1011.1
20260505031153 21 99 0.0 4.8 0.00 0.00 0.00 87 1011.1
20260505031042 21 0 0.0 4.8 0.00 0.00 0.00 87 1011.1
20260505030950 21 144 1.6 4.8 0.00 0.00 0.00 87 1011.1
20260505030841 21 164 1.6 4.8 0.00 0.00 0.00 87 1011.1
20260505030735 21 0 1.6 4.8 0.00 0.00 0.00 87 1011.1
20260505030632 21 192 1.6 4.8 0.00 0.00 0.00 87 1011.1
20260505030532 21 0 1.6 4.8 0.00 0.00 0.00 87 1011.1
20260505030433 21 127 1.6 4.8 0.00 0.00 0.00 87 1011.1
20260505030331 21 0 1.6 4.8 0.00 0.00 0.00 87 1011.1
20260505030231 21 156 1.6 4.8 0.00 0.00 0.00 87 1011.1
20260505030128 21 344 1.6 4.8 0.00 0.00 0.00 87 1011.1
20260505030037 21 181 0.0 4.8 0.00 0.00 0.00 86 1011.1
20260505030030 21 211 0.0 4.8 0.00 0.00 0.00 86 1011.1
20260505025930 21 68 0.0 4.8 0.00 0.00 0.00 86 1011.1
20260505025829 21 137 0.0 3.2 0.00 0.00 0.00 86 1011.0
20260505025753 21 0 0.0 3.2 0.00 0.00 0.00 86 1011.1
20260505025730 21 69 0.0 3.2 0.00 0.00 0.00 86 1011.0
20260505025639 21 95 0.0 3.2 0.00 0.00 0.00 86 1011.1
20260505025525 21 0 0.0 3.2 0.00 0.00 0.00 86 1011.1
20260505025517 21 0 1.6 4.8 0.00 0.00 0.00 86 1011.1
20260505025426 21 209 0.0 4.8 0.00 0.00 0.00 86 1011.1
20260505025404 21 75 0.0 4.8 0.00 0.00 0.00 86 1011.1
20260505025216 21 233 0.0 4.8 0.00 0.00 0.00 86 1011.1
20260505025140 21 0 0.0 4.8 0.00 0.00 0.00 86 1011.1
20260505025017 21 245 1.6 4.8 0.00 0.00 0.00 86 1011.1
20260505024917 21 0 1.6 4.8 0.00 0.00 0.00 86 1011.1
20260505024817 21 188 1.6 4.8 0.00 0.00 0.00 86 1011.1
20260505024717 21 188 1.6 4.8 0.00 0.00 0.00 85 1011.2
20260505024617 21 0 1.6 4.8 0.00 0.00 0.00 85 1011.2
20260505024533 21 0 1.6 4.8 0.00 0.00 0.00 85 1011.2
20260505024517 21 281 1.6 4.8 0.00 0.00 0.00 85 1011.2
20260505024414 21 229 1.6 4.8 0.00 0.00 0.00 85 1011.2
20260505024314 21 188 1.6 4.8 0.00 0.00 0.00 85 1011.2
20260505024214 21 86 1.6 4.8 0.00 0.00 0.00 85 1011.2
20260505024114 21 226 1.6 4.8 0.00 0.00 0.00 85 1011.2
20260505024033 21 0 1.6 4.8 0.00 0.00 0.00 85 1011.2
20260505024014 21 247 1.6 4.8 0.00 0.00 0.00 85 1011.2
20260505023914 21 183 1.6 4.8 0.00 0.00 0.00 85 1011.2
20260505023814 21 0 1.6 4.8 0.00 0.00 0.00 85 1011.1
20260505023714 21 137 1.6 4.8 0.00 0.00 0.00 85 1011.1
20260505023614 21 0 1.6 4.8 0.00 0.00 0.00 85 1011.1
20260505023535 21 179 1.6 4.8 0.00 0.00 0.00 85 1011.1
20260505023514 21 229 1.6 4.8 0.00 0.00 0.00 85 1011.1
20260505023415 21 247 1.6 4.8 0.00 0.00 0.00 85 1011.1
20260505023315 21 162 1.6 4.8 0.00 0.00 0.00 85 1011.1
20260505023214 21 77 1.6 4.8 0.00 0.00 0.00 85 1011.1
20260505023114 21 215 1.6 4.8 0.00 0.00 0.00 85 1011.1
20260505023031 21 159 0.0 4.8 0.00 0.00 0.00 85 1011.1
20260505023015 21 109 0.0 4.8 0.00 0.00 0.00 85 1011.1
20260505022915 21 0 0.0 4.8 0.00 0.00 0.00 85 1011.1
20260505022814 21 80 0.0 4.8 0.00 0.00 0.00 85 1011.1
20260505022751 21 225 0.0 3.2 0.00 0.00 0.00 84 1011.0
20260505022714 21 99 0.0 3.2 0.00 0.00 0.00 84 1011.1
20260505022634 21 62 0.0 3.2 0.00 0.00 0.00 84 1011.0
20260505022515 21 243 0.0 3.2 0.00 0.00 0.00 84 1011.0
20260505022414 21 19 0.0 3.2 0.00 0.00 0.00 84 1011.0
20260505022315 21 192 0.0 3.2 0.00 0.00 0.00 84 1011.0
20260505022215 21 119 0.0 3.2 0.00 0.00 0.00 84 1011.0
20260505022115 21 42 0.0 3.2 0.00 0.00 0.00 84 1011.0
20260505022028 21 142 0.0 3.2 0.00 0.00 0.00 84 1011.0
20260505022015 21 179 0.0 3.2 0.00 0.00 0.00 84 1011.0
20260505021911 21 128 1.6 6.4 0.00 0.00 0.00 84 1011.0
20260505021809 21 0 1.6 6.4 0.00 0.00 0.00 84 1011.0
20260505021706 21 136 1.6 6.4 0.00 0.00 0.00 83 1011.1
20260505021606 21 92 1.6 6.4 0.00 0.00 0.00 83 1011.0
20260505021529 21 0 1.6 6.4 0.00 0.00 0.00 83 1011.0
20260505021507 21 73 1.6 6.4 0.00 0.00 0.00 83 1011.0
20260505021406 21 23 1.6 6.4 0.00 0.00 0.00 83 1011.0
20260505021306 21 89 1.6 6.4 0.00 0.00 0.00 83 1011.0
20260505021206 22 44 1.6 6.4 0.00 0.00 0.00 83 1011.0
20260505021103 22 250 1.6 6.4 0.00 0.00 0.00 83 1011.0
20260505021025 22 220 1.6 6.4 0.00 0.00 0.00 83 1011.0
20260505021000 22 144 1.6 6.4 0.00 0.00 0.00 83 1011.0
20260505020859 22 194 1.6 6.4 0.00 0.00 0.00 83 1011.0
20260505020757 22 278 1.6 6.4 0.00 0.00 0.00 82 1010.9
20260505020657 22 89 1.6 6.4 0.00 0.00 0.00 82 1010.9
20260505020557 22 168 1.6 6.4 0.00 0.00 0.00 82 1010.9
20260505020526 22 115 1.6 6.4 0.00 0.00 0.00 82 1010.9
20260505020454 22 182 1.6 6.4 0.00 0.00 0.00 82 1011.0
20260505020354 22 217 1.6 6.4 0.00 0.00 0.00 82 1011.0
20260505020254 22 170 1.6 6.4 0.00 0.00 0.00 82 1010.9
20260505020151 22 152 1.6 6.4 0.00 0.00 0.00 82 1010.8
20260505020039 22 203 1.6 6.4 0.00 0.00 0.00 82 1010.8
20260505020023 22 289 1.6 6.4 0.00 0.00 0.00 82 1010.8
20260505015936 22 100 1.6 11.3 0.00 0.00 0.00 82 1010.8
20260505015833 22 205 1.6 11.3 0.00 0.00 0.00 81 1010.7
20260505015730 22 94 1.6 11.3 0.00 0.00 0.00 81 1010.7
20260505015631 22 291 1.6 11.3 0.00 0.00 0.00 81 1010.7
20260505015524 22 64 1.6 11.3 0.00 0.00 0.00 81 1010.7
20260505015419 22 187 1.6 11.3 0.00 0.00 0.00 81 1010.7
20260505015316 22 64 1.6 11.3 0.00 0.00 0.00 81 1010.7
20260505015216 22 0 1.6 11.3 0.00 0.00 0.00 81 1010.7
20260505015100 22 141 3.2 11.3 0.00 0.00 0.00 81 1010.7
20260505015023 22 264 3.2 11.3 0.00 0.00 0.00 81 1010.7
20260505014955 22 133 3.2 9.7 0.00 0.00 0.00 81 1010.7
20260505014854 22 92 1.6 8.0 0.00 0.00 0.00 81 1010.7
20260505014751 22 77 1.6 8.0 0.00 0.00 0.00 81 1010.8
20260505014745 22 158 1.6 4.8 0.00 0.00 0.00 81 1010.8
20260505014648 22 185 1.6 6.4 0.00 0.00 0.00 81 1010.8
20260505014629 22 80 1.6 4.8 0.00 0.00 0.00 81 1010.8
20260505014445 22 234 1.6 4.8 0.00 0.00 0.00 81 1010.8
20260505014342 22 172 1.6 4.8 0.00 0.00 0.00 81 1010.7
20260505014242 22 194 1.6 4.8 0.00 0.00 0.00 81 1010.7
20260505014142 22 50 1.6 4.8 0.00 0.00 0.00 81 1010.7
20260505014039 22 320 1.6 6.4 0.00 0.00 0.00 81 1010.7
20260505014020 22 264 1.6 6.4 0.00 0.00 0.00 81 1010.7
20260505013937 22 126 1.6 6.4 0.00 0.00 0.00 81 1010.8
20260505013830 22 156 1.6 8.0 0.00 0.00 0.00 81 1010.8
20260505013725 22 252 1.6 8.0 0.00 0.00 0.00 81 1010.8
20260505013620 22 176 1.6 8.0 0.00 0.00 0.00 81 1010.8
20260505013513 22 285 1.6 8.0 0.00 0.00 0.00 81 1010.7
20260505013409 22 161 1.6 8.0 0.00 0.00 0.00 80 1010.7
20260505013306 22 56 1.6 8.0 0.00 0.00 0.00 80 1010.7
20260505013207 22 59 1.6 8.0 0.00 0.00 0.00 80 1010.7
20260505013106 22 139 1.6 8.0 0.00 0.00 0.00 80 1010.8
20260505013011 22 170 3.2 8.0 0.00 0.00 0.00 80 1010.8
20260505013007 22 174 3.2 8.0 0.00 0.00 0.00 80 1010.8
20260505012906 22 169 1.6 8.0 0.00 0.00 0.00 80 1010.8
20260505012806 22 187 1.6 8.0 0.00 0.00 0.00 80 1010.9
20260505012706 22 227 3.2 8.0 0.00 0.00 0.00 80 1010.9
20260505012606 22 86 1.6 8.0 0.00 0.00 0.00 80 1010.9
20260505012505 22 92 3.2 8.0 0.00 0.00 0.00 80 1010.9
20260505012501 22 114 3.2 8.0 0.00 0.00 0.00 80 1010.9
20260505012400 22 275 3.2 8.0 0.00 0.00 0.00 80 1010.9
20260505012300 22 168 3.2 8.0 0.00 0.00 0.00 80 1010.9
20260505012159 22 156 3.2 8.0 0.00 0.00 0.00 80 1010.9
20260505012059 22 95 3.2 6.4 0.00 0.00 0.00 80 1010.9
20260505012005 22 160 3.2 6.4 0.00 0.00 0.00 80 1010.9
20260505011959 22 262 3.2 6.4 0.00 0.00 0.00 80 1010.9
20260505011859 22 239 3.2 6.4 0.00 0.00 0.00 80 1010.9
20260505011755 22 89 3.2 6.4 0.00 0.00 0.00 80 1010.9
20260505011652 22 204 3.2 6.4 0.00 0.00 0.00 80 1010.9
20260505011549 22 168 3.2 6.4 0.00 0.00 0.00 80 1010.8
20260505011457 22 149 3.2 6.4 0.00 0.00 0.00 80 1010.7
20260505011446 22 203 3.2 8.0 0.00 0.00 0.00 80 1010.7
20260505011343 22 186 3.2 8.0 0.00 0.00 0.00 80 1010.7
20260505011240 22 53 3.2 8.0 0.00 0.00 0.00 79 1010.7
20260505011140 22 346 3.2 8.0 0.00 0.00 0.00 79 1010.7
20260505011037 22 81 3.2 8.0 0.00 0.00 0.00 79 1010.6
20260505010958 22 137 3.2 8.0 0.00 0.00 0.00 79 1010.6
20260505010937 22 113 3.2 8.0 0.00 0.00 0.00 79 1010.6
20260505010837 22 209 3.2 8.0 0.00 0.00 0.00 79 1010.7
20260505010733 22 188 3.2 8.0 0.00 0.00 0.00 79 1010.7
20260505010630 22 0 3.2 8.0 0.00 0.00 0.00 79 1010.7
20260505010528 22 182 3.2 8.0 0.00 0.00 0.00 79 1010.7
20260505010455 22 93 3.2 8.0 0.00 0.00 0.00 79 1010.8
20260505010422 22 193 3.2 8.0 0.00 0.00 0.00 79 1010.8
20260505010310 22 175 3.2 8.0 0.00 0.00 0.00 79 1010.8
20260505010210 22 141 3.2 6.4 0.00 0.00 0.00 79 1010.8
20260505010107 22 286 3.2 8.0 0.00 0.00 0.00 79 1010.8
20260505010004 23 203 3.2 8.0 0.00 0.00 0.00 79 1010.8
20260505005951 23 8 3.2 8.0 0.00 0.00 0.00 79 1010.8
20260505005904 23 169 3.2 8.0 0.00 0.00 0.00 79 1010.8
20260505005801 23 174 3.2 8.0 0.00 0.00 0.00 79 1010.8
20260505005702 23 113 3.2 8.0 0.00 0.00 0.00 79 1010.7
20260505005600 23 103 3.2 8.0 0.00 0.00 0.00 79 1010.7
20260505005450 23 194 3.2 8.0 0.00 0.00 0.00 79 1010.7
20260505005359 23 200 3.2 8.0 0.00 0.00 0.00 79 1010.8
20260505005259 23 184 3.2 8.0 0.00 0.00 0.00 79 1010.8
20260505005155 23 138 3.2 8.0 0.00 0.00 0.00 78 1010.7
20260505005055 23 186 3.2 8.0 0.00 0.00 0.00 78 1010.7
20260505004957 23 145 3.2 8.0 0.00 0.00 0.00 78 1010.7
20260505004951 23 111 3.2 8.0 0.00 0.00 0.00 78 1010.7
20260505004856 23 172 3.2 8.0 0.00 0.00 0.00 78 1010.7
20260505004755 23 80 3.2 8.0 0.00 0.00 0.00 78 1010.7
20260505004655 23 62 3.2 8.0 0.00 0.00 0.00 78 1010.7
20260505004555 23 201 3.2 8.0 0.00 0.00 0.00 78 1010.7
20260505004456 23 196 3.2 8.0 0.00 0.00 0.00 78 1010.6
20260505004450 23 179 3.2 8.0 0.00 0.00 0.00 78 1010.6
20260505004355 23 64 3.2 8.0 0.00 0.00 0.00 78 1010.6
20260505004255 23 0 3.2 8.0 0.00 0.00 0.00 78 1010.6
20260505004155 23 185 3.2 8.0 0.00 0.00 0.00 78 1010.6
20260505004046 23 142 3.2 8.0 0.00 0.00 0.00 78 1010.5
20260505003951 23 201 3.2 8.0 0.00 0.00 0.00 78 1010.5
20260505003946 23 184 3.2 8.0 0.00 0.00 0.00 78 1010.5
20260505003846 23 127 3.2 8.0 0.00 0.00 0.00 78 1010.5
20260505003743 23 93 3.2 8.0 0.00 0.00 0.00 78 1010.5
20260505003643 23 241 3.2 9.7 0.00 0.00 0.00 78 1010.5
20260505003543 23 158 3.2 9.7 0.00 0.00 0.00 78 1010.5
20260505003452 23 158 3.2 9.7 0.00 0.00 0.00 78 1010.5
20260505003443 23 174 3.2 9.7 0.00 0.00 0.00 78 1010.5
20260505003344 23 100 3.2 9.7 0.00 0.00 0.00 78 1010.5
20260505003237 23 179 3.2 9.7 0.00 0.00 0.00 77 1010.4
20260505003135 23 116 3.2 9.7 0.00 0.00 0.00 77 1010.4
20260505003035 23 95 3.2 9.7 0.00 0.00 0.00 77 1010.4
20260505002950 23 106 3.2 9.7 0.00 0.00 0.00 77 1010.4
20260505002934 23 194 3.2 9.7 0.00 0.00 0.00 77 1010.4
20260505002835 23 184 3.2 9.7 0.00 0.00 0.00 77 1010.5
20260505002734 23 48 3.2 9.7 0.00 0.00 0.00 77 1010.5
20260505002704 23 124 3.2 12.9 0.00 0.00 0.00 77 1010.5
20260505002629 23 170 3.2 9.7 0.00 0.00 0.00 77 1010.5
20260505002604 23 227 3.2 9.7 0.00 0.00 0.00 77 1010.5
20260505002425 23 112 3.2 12.9 0.00 0.00 0.00 77 1010.5
20260505002325 23 156 3.2 12.9 0.00 0.00 0.00 77 1010.5
20260505002226 23 152 3.2 12.9 0.00 0.00 0.00 77 1010.6
20260505002126 23 175 3.2 12.9 0.00 0.00 0.00 77 1010.6
20260505002026 23 129 3.2 12.9 0.00 0.00 0.00 77 1010.5
20260505001945 23 126 3.2 12.9 0.00 0.00 0.00 77 1010.5
20260505001925 23 174 3.2 12.9 0.00 0.00 0.00 77 1010.5
20260505001825 23 179 3.2 12.9 0.00 0.00 0.00 77 1010.5
20260505001725 23 0 3.2 12.9 0.00 0.00 0.00 76 1010.5
20260505001625 23 184 3.2 12.9 0.00 0.00 0.00 76 1010.5
20260505001520 23 100 3.2 12.9 0.00 0.00 0.00 76 1010.5
20260505001446 23 115 3.2 11.3 0.00 0.00 0.00 76 1010.5
20260505001420 23 155 3.2 11.3 0.00 0.00 0.00 76 1010.5
20260505001320 23 97 3.2 11.3 0.00 0.00 0.00 76 1010.5
20260505001220 23 93 3.2 11.3 0.00 0.00 0.00 76 1010.5
20260505001120 23 136 3.2 11.3 0.00 0.00 0.00 75 1010.6
20260505001017 23 201 3.2 11.3 0.00 0.00 0.00 75 1010.6
20260505000946 23 152 3.2 11.3 0.00 0.00 0.00 75 1010.7
20260505000917 23 120 3.2 11.3 0.00 0.00 0.00 75 1010.7
20260505000808 23 109 3.2 11.3 0.00 0.00 0.00 75 1010.7
20260505000708 23 179 3.2 11.3 0.00 0.00 0.00 75 1010.8
20260505000608 23 197 3.2 11.3 0.00 0.00 0.00 75 1010.8
20260505000508 23 134 3.2 11.3 0.00 0.00 0.00 75 1010.8
20260505000442 23 246 3.2 11.3 0.00 0.00 0.00 75 1010.8
20260505000407 23 159 4.8 11.3 0.00 0.00 0.00 75 1010.8
20260505000307 23 124 4.8 11.3 0.00 0.00 0.00 75 1010.8
20260505000205 23 238 4.8 11.3 0.00 0.00 0.00 75 1010.8
20260505000002 24 92 3.2 11.3 0.00 0.00 0.00 75 1010.9
20260504235939 24 145 4.8 11.3 0.00 0.00 0.00 75 1010.9
20260504235859 24 197 4.8 11.3 0.00 0.00 0.00 75 1010.9
20260504235759 24 124 4.8 11.3 0.00 0.00 0.00 75 1010.8
20260504235657 24 59 4.8 11.3 0.00 0.00 0.00 74 1010.7
20260504235552 24 146 4.8 11.3 0.00 0.00 0.00 74 1010.7
20260504235447 24 111 4.8 11.3 0.00 0.00 0.00 74 1010.7
20260504235439 24 85 3.2 11.3 0.00 0.00 0.00 74 1010.7
20260504235347 24 180 4.8 11.3 0.00 0.00 0.00 74 1010.7
20260504235247 24 178 4.8 11.3 0.00 0.00 0.00 74 1010.7
20260504235147 24 139 4.8 11.3 0.00 0.00 0.00 74 1010.7
20260504235047 24 185 4.8 11.3 0.00 0.00 0.00 74 1010.7
20260504234944 24 199 4.8 11.3 0.00 0.00 0.00 74 1010.6
20260504234936 24 119 4.8 11.3 0.00 0.00 0.00 74 1010.6
20260504234841 24 92 3.2 11.3 0.00 0.00 0.00 74 1010.7
20260504234741 24 200 3.2 11.3 0.00 0.00 0.00 74 1010.7
20260504234658 24 129 3.2 11.3 0.00 0.00 0.00 74 1010.7
20260504234638 24 96 3.2 11.3 0.00 0.00 0.00 74 1010.7
20260504234545 24 175 3.2 11.3 0.00 0.00 0.00 74 1010.7
20260504234435 24 149 3.2 11.3 0.00 0.00 0.00 74 1010.7
20260504234332 24 215 3.2 11.3 0.00 0.00 0.00 74 1010.7
20260504234229 24 98 3.2 11.3 0.00 0.00 0.00 74 1010.7
20260504234129 24 140 3.2 12.9 0.00 0.00 0.00 74 1010.8
20260504234029 24 177 3.2 12.9 0.00 0.00 0.00 74 1010.8
20260504233936 24 77 4.8 12.9 0.00 0.00 0.00 74 1010.8
20260504233926 24 169 4.8 12.9 0.00 0.00 0.00 74 1010.8
20260504233826 24 126 4.8 12.9 0.00 0.00 0.00 74 1010.9
20260504233726 24 283 4.8 12.9 0.00 0.00 0.00 74 1010.9
20260504233626 24 196 4.8 12.9 0.00 0.00 0.00 74 1010.9
20260504233526 24 202 4.8 17.7 0.00 0.00 0.00 74 1011.0
20260504233436 24 124 4.8 17.7 0.00 0.00 0.00 74 1010.9
20260504233426 24 97 4.8 17.7 0.00 0.00 0.00 74 1010.9
20260504233326 24 50 4.8 17.7 0.00 0.00 0.00 73 1010.9
20260504233220 24 127 4.8 17.7 0.00 0.00 0.00 73 1010.9
20260504233118 25 107 4.8 17.7 0.00 0.00 0.00 73 1010.9
20260504233016 25 183 4.8 17.7 0.00 0.00 0.00 73 1010.9
20260504232937 25 184 4.8 17.7 0.00 0.00 0.00 73 1010.9
20260504232914 25 212 4.8 17.7 0.00 0.00 0.00 73 1010.9
20260504232814 25 153 4.8 17.7 0.00 0.00 0.00 73 1010.9
20260504232711 25 98 4.8 17.7 0.00 0.00 0.00 73 1010.9
20260504232611 25 96 4.8 17.7 0.00 0.00 0.00 73 1010.9
20260504232511 25 120 4.8 16.1 0.00 0.00 0.00 73 1011.0
20260504232437 25 170 4.8 16.1 0.00 0.00 0.00 73 1011.0
20260504232408 25 149 4.8 16.1 0.00 0.00 0.00 73 1011.0
20260504232308 25 128 4.8 16.1 0.00 0.00 0.00 73 1011.0
20260504232208 25 213 4.8 16.1 0.00 0.00 0.00 73 1011.0
20260504232106 25 34 4.8 16.1 0.00 0.00 0.00 73 1011.0
20260504232005 25 132 4.8 16.1 0.00 0.00 0.00 73 1011.0
20260504231937 25 80 4.8 16.1 0.00 0.00 0.00 73 1011.0
20260504231900 25 148 4.8 16.1 0.00 0.00 0.00 73 1011.0
20260504231759 25 77 4.8 16.1 0.00 0.00 0.00 73 1011.0
20260504231705 25 159 4.8 16.1 0.00 0.00 0.00 73 1011.0
20260504231700 25 122 4.8 16.1 0.00 0.00 0.00 73 1011.0
20260504231557 25 101 4.8 16.1 0.00 0.00 0.00 73 1011.0
20260504231543 25 93 4.8 16.1 0.00 0.00 0.00 73 1011.0
20260504231354 25 158 4.8 16.1 0.00 0.00 0.00 73 1011.0
20260504231253 25 88 4.8 16.1 0.00 0.00 0.00 73 1011.1
20260504231153 25 183 4.8 16.1 0.00 0.00 0.00 73 1011.1
20260504231048 24 142 4.8 16.1 0.00 0.00 0.00 74 1011.1
20260504230947 24 98 4.8 12.9 0.00 0.00 0.00 74 1011.1
20260504230937 24 157 4.8 12.9 0.00 0.00 0.00 74 1011.1
20260504230847 24 117 4.8 12.9 0.00 0.00 0.00 74 1011.1
20260504230748 24 27 4.8 12.9 0.00 0.00 0.00 74 1011.1
20260504230648 24 183 4.8 12.9 0.00 0.00 0.00 74 1011.2
20260504230539 24 205 4.8 12.9 0.00 0.00 0.00 74 1011.2
20260504230439 24 88 4.8 12.9 0.00 0.00 0.00 74 1011.2
20260504230338 24 206 4.8 12.9 0.00 0.00 0.00 74 1011.2
20260504230238 24 87 4.8 12.9 0.00 0.00 0.00 73 1011.3
20260504230138 24 137 4.8 12.9 0.00 0.00 0.00 73 1011.3
20260504230039 24 131 4.8 12.9 0.00 0.00 0.00 73 1011.3
20260504225939 24 148 4.8 12.9 0.00 0.00 0.00 73 1011.3
20260504225839 24 103 4.8 12.9 0.00 0.00 0.00 73 1011.3
20260504225739 24 181 4.8 12.9 0.00 0.00 0.00 74 1011.2
20260504225638 24 34 4.8 12.9 0.00 0.00 0.00 74 1011.2
20260504225538 24 78 4.8 12.9 0.00 0.00 0.00 74 1011.2
20260504225439 25 120 4.8 12.9 0.00 0.00 0.00 74 1011.2
20260504225335 25 63 4.8 12.9 0.00 0.00 0.00 74 1011.2
20260504225232 25 97 4.8 14.5 0.00 0.00 0.00 73 1011.2
20260504225130 25 185 4.8 14.5 0.00 0.00 0.00 73 1011.2
20260504225030 25 115 4.8 14.5 0.00 0.00 0.00 73 1011.2
20260504224937 25 59 4.8 14.5 0.00 0.00 0.00 73 1011.2
20260504224930 25 296 4.8 14.5 0.00 0.00 0.00 73 1011.2
20260504224830 25 92 4.8 14.5 0.00 0.00 0.00 73 1011.2
20260504224726 25 77 4.8 14.5 0.00 0.00 0.00 73 1011.3
20260504224703 25 161 4.8 14.5 0.00 0.00 0.00 72 1011.3
20260504224623 25 243 4.8 14.5 0.00 0.00 0.00 73 1011.3
20260504224544 25 147 4.8 14.5 0.00 0.00 0.00 73 1011.3
20260504224421 25 99 3.2 14.5 0.00 0.00 0.00 72 1011.3
20260504224318 25 104 3.2 14.5 0.00 0.00 0.00 72 1011.2
20260504224214 25 190 3.2 11.3 0.00 0.00 0.00 72 1011.2
20260504224115 25 153 3.2 11.3 0.00 0.00 0.00 72 1011.3
20260504224015 25 162 3.2 11.3 0.00 0.00 0.00 72 1011.3
20260504223931 25 208 3.2 11.3 0.00 0.00 0.00 71 1011.3
20260504223914 25 140 3.2 11.3 0.00 0.00 0.00 71 1011.3
20260504223814 25 89 3.2 8.0 0.00 0.00 0.00 71 1011.3
20260504223715 25 193 3.2 12.9 0.00 0.00 0.00 71 1011.4
20260504223615 25 303 3.2 12.9 0.00 0.00 0.00 71 1011.4
20260504223515 25 187 3.2 12.9 0.00 0.00 0.00 71 1011.4
20260504223432 25 88 3.2 12.9 0.00 0.00 0.00 71 1011.4
20260504223415 25 258 3.2 12.9 0.00 0.00 0.00 71 1011.4
20260504223309 25 88 3.2 12.9 0.00 0.00 0.00 71 1011.4
20260504223209 25 176 3.2 12.9 0.00 0.00 0.00 72 1011.4
20260504223103 25 252 3.2 12.9 0.00 0.00 0.00 72 1011.5
20260504223003 25 323 3.2 12.9 0.00 0.00 0.00 71 1011.5
20260504222931 25 126 3.2 14.5 0.00 0.00 0.00 71 1011.5
20260504222900 25 269 3.2 14.5 0.00 0.00 0.00 71 1011.5
20260504222758 25 211 3.2 14.5 0.00 0.00 0.00 73 1011.6
20260504222703 25 146 3.2 14.5 0.00 0.00 0.00 72 1011.6
20260504222656 25 45 3.2 14.5 0.00 0.00 0.00 72 1011.6
20260504222557 25 130 3.2 14.5 0.00 0.00 0.00 72 1011.6
20260504222537 25 165 3.2 14.5 0.00 0.00 0.00 72 1011.6
20260504222351 25 161 3.2 14.5 0.00 0.00 0.00 72 1011.6
20260504222251 25 151 3.2 14.5 0.00 0.00 0.00 72 1011.6
20260504222148 25 197 3.2 14.5 0.00 0.00 0.00 73 1011.7
20260504222045 25 121 3.2 14.5 0.00 0.00 0.00 73 1011.7
20260504221943 25 80 3.2 14.5 0.00 0.00 0.00 73 1011.7
20260504221928 25 102 3.2 11.3 0.00 0.00 0.00 73 1011.7
20260504221839 25 141 3.2 11.3 0.00 0.00 0.00 72 1011.7
20260504221739 25 182 4.8 11.3 0.00 0.00 0.00 72 1011.8
20260504221630 25 103 4.8 11.3 0.00 0.00 0.00 72 1011.8
20260504221527 25 103 4.8 9.7 0.00 0.00 0.00 73 1011.8
20260504221431 25 94 4.8 9.7 0.00 0.00 0.00 73 1011.8
20260504221427 25 108 4.8 9.7 0.00 0.00 0.00 73 1011.8
20260504221327 25 170 4.8 9.7 0.00 0.00 0.00 73 1011.8
20260504221227 25 151 4.8 11.3 0.00 0.00 0.00 73 1011.8
20260504221127 25 202 4.8 11.3 0.00 0.00 0.00 73 1011.7
20260504221027 25 143 4.8 12.9 0.00 0.00 0.00 72 1011.7
20260504220929 25 129 4.8 12.9 0.00 0.00 0.00 72 1011.7
20260504220924 25 180 4.8 12.9 0.00 0.00 0.00 72 1011.7
20260504220818 25 189 4.8 12.9 0.00 0.00 0.00 72 1011.7
20260504220718 25 161 4.8 12.9 0.00 0.00 0.00 72 1011.7
20260504220619 25 89 4.8 12.9 0.00 0.00 0.00 72 1011.7
20260504220518 25 181 4.8 12.9 0.00 0.00 0.00 72 1011.7
20260504220427 25 322 4.8 12.9 0.00 0.00 0.00 72 1011.7
20260504220409 25 190 4.8 12.9 0.00 0.00 0.00 72 1011.7
20260504220306 25 197 4.8 12.9 0.00 0.00 0.00 71 1011.7
20260504220206 25 93 4.8 12.9 0.00 0.00 0.00 71 1011.7
20260504220106 25 150 4.8 14.5 0.00 0.00 0.00 71 1011.7
20260504220006 25 118 4.8 14.5 0.00 0.00 0.00 72 1011.7
20260504215926 25 189 4.8 14.5 0.00 0.00 0.00 72 1011.7
20260504215908 25 96 4.8 14.5 0.00 0.00 0.00 72 1011.7
20260504215803 25 101 4.8 14.5 0.00 0.00 0.00 72 1011.7
20260504215703 25 152 4.8 14.5 0.00 0.00 0.00 72 1011.7
20260504215604 25 205 4.8 14.5 0.00 0.00 0.00 72 1011.7
20260504215502 25 152 4.8 14.5 0.00 0.00 0.00 72 1011.7
20260504215427 25 199 4.8 14.5 0.00 0.00 0.00 72 1011.7
20260504215401 25 90 4.8 14.5 0.00 0.00 0.00 72 1011.7
20260504215301 25 188 4.8 14.5 0.00 0.00 0.00 72 1011.7
20260504215200 25 73 4.8 14.5 0.00 0.00 0.00 72 1011.7
20260504215100 25 167 4.8 14.5 0.00 0.00 0.00 71 1011.7
20260504215000 25 119 4.8 14.5 0.00 0.00 0.00 72 1011.7
20260504214928 25 45 4.8 14.5 0.00 0.00 0.00 72 1011.7
20260504214924 25 109 4.8 14.5 0.00 0.00 0.00 72 1011.9
20260504214901 25 241 4.8 14.5 0.00 0.00 0.00 72 1011.8
20260504214803 25 104 4.8 14.5 0.00 0.00 0.00 72 1011.7
20260504214758 25 199 4.8 14.5 0.00 0.00 0.00 72 1011.8
20260504214600 25 86 4.8 14.5 0.00 0.00 0.00 72 1011.9
20260504214532 25 213 4.8 14.5 0.00 0.00 0.00 72 1011.9
20260504214357 25 115 4.8 14.5 0.00 0.00 0.00 72 1011.9
20260504214255 25 205 4.8 14.5 0.00 0.00 0.00 71 1012.0
20260504214155 25 177 4.8 14.5 0.00 0.00 0.00 71 1012.0
20260504214055 25 145 4.8 14.5 0.00 0.00 0.00 71 1012.0
20260504213955 25 82 4.8 14.5 0.00 0.00 0.00 71 1012.1
20260504213927 25 173 4.8 14.5 0.00 0.00 0.00 71 1012.1
20260504213854 25 98 4.8 14.5 0.00 0.00 0.00 71 1012.1
20260504213754 25 93 4.8 14.5 0.00 0.00 0.00 71 1012.1
20260504213654 25 216 4.8 14.5 0.00 0.00 0.00 71 1012.1
20260504213555 25 297 4.8 14.5 0.00 0.00 0.00 71 1012.1
20260504213454 25 171 4.8 11.3 0.00 0.00 0.00 71 1012.1
20260504213423 25 123 4.8 11.3 0.00 0.00 0.00 71 1012.1
20260504213352 25 187 4.8 9.7 0.00 0.00 0.00 71 1012.1
20260504213249 25 188 4.8 9.7 0.00 0.00 0.00 71 1012.1
20260504213151 25 106 4.8 11.3 0.00 0.00 0.00 71 1012.0
20260504213146 25 184 4.8 9.7 0.00 0.00 0.00 71 1012.1
20260504213046 25 105 4.8 11.3 0.00 0.00 0.00 71 1012.0
20260504213026 25 116 4.8 11.3 0.00 0.00 0.00 71 1012.0
20260504212840 25 204 3.2 11.3 0.00 0.00 0.00 71 1012.0
20260504212740 25 105 3.2 11.3 0.00 0.00 0.00 71 1012.0
20260504212653 25 164 3.2 11.3 0.00 0.00 0.00 72 1011.9
20260504212640 25 178 3.2 11.3 0.00 0.00 0.00 71 1012.0
20260504212540 25 100 3.2 11.3 0.00 0.00 0.00 71 1012.0
20260504212526 25 127 3.2 11.3 0.00 0.00 0.00 72 1011.9
20260504212340 25 160 3.2 11.3 0.00 0.00 0.00 72 1012.0
20260504212240 25 145 3.2 11.3 0.00 0.00 0.00 72 1012.1
20260504212133 25 171 3.2 12.9 0.00 0.00 0.00 72 1012.1
20260504212035 25 118 3.2 12.9 0.00 0.00 0.00 73 1012.1
20260504211934 24 106 3.2 12.9 0.00 0.00 0.00 72 1012.1
20260504211918 24 296 3.2 12.9 0.00 0.00 0.00 72 1012.1
20260504211834 24 80 4.8 12.9 0.00 0.00 0.00 72 1012.1
20260504211734 24 165 4.8 12.9 0.00 0.00 0.00 72 1012.1
20260504211633 24 288 4.8 12.9 0.00 0.00 0.00 72 1012.1
20260504211531 24 145 4.8 12.9 0.00 0.00 0.00 73 1012.2
20260504211431 24 252 4.8 12.9 0.00 0.00 0.00 72 1012.3
20260504211415 24 253 4.8 12.9 0.00 0.00 0.00 72 1012.3
20260504211331 24 250 4.8 12.9 0.00 0.00 0.00 72 1012.3
20260504211231 24 123 4.8 12.9 0.00 0.00 0.00 72 1012.3
20260504211125 24 97 4.8 12.9 0.00 0.00 0.00 72 1012.3
20260504211026 25 180 4.8 12.9 0.00 0.00 0.00 72 1012.4
20260504210925 25 109 4.8 12.9 0.00 0.00 0.00 72 1012.4
20260504210915 25 101 4.8 12.9 0.00 0.00 0.00 72 1012.4
20260504210826 25 164 4.8 12.9 0.00 0.00 0.00 72 1012.4
20260504210723 25 80 4.8 11.3 0.00 0.00 0.00 72 1012.4
20260504210623 25 85 4.8 11.3 0.00 0.00 0.00 72 1012.4
20260504210523 25 250 4.8 14.5 0.00 0.00 0.00 71 1012.5
20260504210422 25 187 4.8 14.5 0.00 0.00 0.00 71 1012.5
20260504210415 25 181 4.8 14.5 0.00 0.00 0.00 71 1012.5
20260504210322 25 163 4.8 14.5 0.00 0.00 0.00 71 1012.5
20260504210219 25 78 4.8 14.5 0.00 0.00 0.00 71 1012.4
20260504210119 25 83 4.8 16.1 0.00 0.00 0.00 71 1012.4
20260504210008 25 106 4.8 16.1 0.00 0.00 0.00 71 1012.4
20260504205908 25 91 4.8 16.1 0.00 0.00 0.00 71 1012.4
20260504205808 25 148 4.8 16.1 0.00 0.00 0.00 71 1012.4
20260504205710 25 111 4.8 16.1 0.00 0.00 0.00 71 1012.5
20260504205609 25 329 4.8 16.1 0.00 0.00 0.00 71 1012.5
20260504205509 25 200 6.4 16.1 0.00 0.00 0.00 71 1012.5
20260504205409 25 184 6.4 16.1 0.00 0.00 0.00 71 1012.5
20260504205309 25 86 6.4 16.1 0.00 0.00 0.00 71 1012.5
20260504205206 25 155 6.4 16.1 0.00 0.00 0.00 71 1012.5
20260504205130 25 144 6.4 16.1 0.00 0.00 0.00 71 1012.5
20260504205106 25 132 6.4 16.1 0.00 0.00 0.00 71 1012.5
20260504205016 25 147 6.4 16.1 0.00 0.00 0.00 71 1012.4
20260504204906 25 125 6.4 16.1 0.00 0.00 0.00 71 1012.5
20260504204806 25 93 6.4 16.1 0.00 0.00 0.00 70 1012.5
20260504204706 25 99 6.4 16.1 0.00 0.00 0.00 70 1012.5
20260504204606 25 110 6.4 16.1 0.00 0.00 0.00 70 1012.5
20260504204504 25 96 4.8 14.5 0.00 0.00 0.00 70 1012.5
20260504204410 25 180 4.8 14.5 0.00 0.00 0.00 70 1012.6
20260504204403 25 177 4.8 14.5 0.00 0.00 0.00 70 1012.6
20260504204304 25 129 4.8 14.5 0.00 0.00 0.00 70 1012.6
20260504204203 25 154 4.8 14.5 0.00 0.00 0.00 70 1012.5
20260504204102 25 112 4.8 14.5 0.00 0.00 0.00 69 1012.5
20260504204000 25 82 4.8 14.5 0.00 0.00 0.00 69 1012.5
20260504203910 25 100 4.8 14.5 0.00 0.00 0.00 69 1012.5
20260504203901 25 81 4.8 14.5 0.00 0.00 0.00 68 1012.6
20260504203801 25 176 3.2 14.5 0.00 0.00 0.00 68 1012.6
20260504203657 25 170 3.2 12.9 0.00 0.00 0.00 68 1012.6
20260504203557 25 104 4.8 12.9 0.00 0.00 0.00 70 1012.6
20260504203454 25 202 3.2 12.9 0.00 0.00 0.00 69 1012.7
20260504203408 25 215 4.8 12.9 0.00 0.00 0.00 69 1012.7
20260504203354 25 207 4.8 12.9 0.00 0.00 0.00 69 1012.7
20260504203254 25 110 4.8 12.9 0.00 0.00 0.00 69 1012.7
20260504203154 25 123 4.8 12.9 0.00 0.00 0.00 69 1012.7
20260504203059 26 187 4.8 12.9 0.00 0.00 0.00 69 1012.8
20260504203055 25 97 4.8 12.9 0.00 0.00 0.00 70 1012.7
20260504202955 25 142 3.2 9.7 0.00 0.00 0.00 70 1012.7
20260504202946 25 160 4.8 9.7 0.00 0.00 0.00 69 1012.7
20260504202942 25 219 4.8 9.7 0.00 0.00 0.00 69 1012.7
20260504202755 25 146 3.2 9.7 0.00 0.00 0.00 69 1012.7
20260504202717 25 133 4.8 12.9 0.00 0.00 0.00 69 1012.7
20260504202548 26 107 4.8 12.9 0.00 0.00 0.00 69 1012.8
20260504202500 26 84 4.8 12.9 0.00 0.00 0.00 69 1012.8
20260504202346 26 226 4.8 12.9 0.00 0.00 0.00 69 1012.8
20260504202242 26 189 4.8 12.9 0.00 0.00 0.00 68 1012.7
20260504202140 26 72 4.8 12.9 0.00 0.00 0.00 68 1012.7
20260504202037 26 196 4.8 12.9 0.00 0.00 0.00 68 1012.7
20260504201931 26 151 4.8 12.9 0.00 0.00 0.00 67 1012.8
20260504201855 26 325 4.8 12.9 0.00 0.00 0.00 67 1012.8
20260504201831 26 307 4.8 14.5 0.00 0.00 0.00 67 1012.8
20260504201731 26 159 4.8 14.5 0.00 0.00 0.00 66 1012.8
20260504201630 26 103 4.8 14.5 0.00 0.00 0.00 66 1012.8
20260504201530 26 188 4.8 14.5 0.00 0.00 0.00 66 1012.8
20260504201427 26 138 4.8 14.5 0.00 0.00 0.00 66 1012.8
20260504201345 26 193 4.8 14.5 0.00 0.00 0.00 66 1012.8
20260504201327 26 99 4.8 14.5 0.00 0.00 0.00 66 1012.8
20260504201228 26 181 4.8 14.5 0.00 0.00 0.00 66 1012.8
20260504201127 26 229 4.8 14.5 0.00 0.00 0.00 66 1012.8
20260504201022 26 1 4.8 14.5 0.00 0.00 0.00 66 1012.8
20260504200922 26 193 4.8 14.5 0.00 0.00 0.00 67 1012.8
20260504200845 26 163 4.8 14.5 0.00 0.00 0.00 67 1012.8
20260504200821 26 99 4.8 14.5 0.00 0.00 0.00 67 1012.8
20260504200719 26 141 4.8 14.5 0.00 0.00 0.00 67 1012.8
20260504200619 26 170 4.8 14.5 0.00 0.00 0.00 67 1012.9
20260504200519 26 186 4.8 14.5 0.00 0.00 0.00 68 1012.8
20260504200419 26 237 4.8 14.5 0.00 0.00 0.00 68 1012.8
20260504200343 26 148 4.8 14.5 0.00 0.00 0.00 68 1012.8
20260504200316 26 108 4.8 14.5 0.00 0.00 0.00 68 1012.8
20260504200212 26 126 4.8 14.5 0.00 0.00 0.00 67 1012.8
20260504200112 26 87 4.8 14.5 0.00 0.00 0.00 67 1012.8
20260504200010 26 229 4.8 16.1 0.00 0.00 0.00 67 1012.8
20260504195910 26 160 4.8 16.1 0.00 0.00 0.00 68 1012.8
20260504195839 26 176 4.8 16.1 0.00 0.00 0.00 68 1012.8
20260504195810 26 173 4.8 16.1 0.00 0.00 0.00 68 1012.8
20260504195710 26 176 4.8 16.1 0.00 0.00 0.00 66 1013.0
20260504195607 26 113 4.8 16.1 0.00 0.00 0.00 66 1013.0
20260504195506 26 240 4.8 16.1 0.00 0.00 0.00 66 1013.0
20260504195410 26 138 4.8 16.1 0.00 0.00 0.00 66 1013.0
20260504195340 26 141 4.8 16.1 0.00 0.00 0.00 66 1013.0
20260504195304 26 89 4.8 16.1 0.00 0.00 0.00 65 1013.0
20260504195159 26 283 4.8 16.1 0.00 0.00 0.00 66 1013.0
20260504195056 26 100 4.8 16.1 0.00 0.00 0.00 67 1013.0
20260504194956 26 219 4.8 12.9 0.00 0.00 0.00 67 1013.0
20260504194853 26 266 4.8 12.9 0.00 0.00 0.00 67 1013.1
20260504194840 26 224 4.8 12.9 0.00 0.00 0.00 67 1013.1
20260504194750 26 169 4.8 12.9 0.00 0.00 0.00 67 1013.1
20260504194647 26 127 4.8 12.9 0.00 0.00 0.00 67 1013.1
20260504194544 26 161 4.8 12.9 0.00 0.00 0.00 67 1013.1
20260504194444 26 173 4.8 12.9 0.00 0.00 0.00 68 1013.1
20260504194342 26 187 4.8 12.9 0.00 0.00 0.00 67 1013.1
20260504194336 26 176 4.8 12.9 0.00 0.00 0.00 67 1013.1
20260504194241 26 105 4.8 12.9 0.00 0.00 0.00 67 1013.1
20260504194138 26 18 4.8 12.9 0.00 0.00 0.00 67 1013.1
20260504194038 26 102 4.8 9.7 0.00 0.00 0.00 67 1013.1
20260504193930 26 177 4.8 9.7 0.00 0.00 0.00 67 1013.1
20260504193837 26 127 4.8 9.7 0.00 0.00 0.00 67 1013.2
20260504193823 26 215 4.8 9.7 0.00 0.00 0.00 67 1013.2
20260504193723 26 100 4.8 11.3 0.00 0.00 0.00 66 1013.3
20260504193620 26 106 4.8 11.3 0.00 0.00 0.00 66 1013.3
20260504193520 26 99 4.8 11.3 0.00 0.00 0.00 65 1013.4
20260504193418 26 325 4.8 11.3 0.00 0.00 0.00 65 1013.4
20260504193337 26 180 4.8 11.3 0.00 0.00 0.00 65 1013.4
20260504193318 26 124 4.8 11.3 0.00 0.00 0.00 65 1013.4
20260504193218 26 273 4.8 14.5 0.00 0.00 0.00 64 1013.5
20260504193118 26 135 4.8 14.5 0.00 0.00 0.00 66 1013.4
20260504193018 26 96 4.8 14.5 0.00 0.00 0.00 66 1013.4
20260504192918 26 184 4.8 14.5 0.00 0.00 0.00 66 1013.4
20260504192837 26 226 4.8 14.5 0.00 0.00 0.00 65 1013.4
20260504192818 26 119 4.8 14.5 0.00 0.00 0.00 65 1013.4
20260504192718 26 160 4.8 14.5 0.00 0.00 0.00 66 1013.4
20260504192618 26 147 4.8 14.5 0.00 0.00 0.00 66 1013.3
20260504192518 26 174 4.8 14.5 0.00 0.00 0.00 66 1013.3
20260504192418 26 182 4.8 14.5 0.00 0.00 0.00 66 1013.3
20260504192338 26 163 4.8 14.5 0.00 0.00 0.00 66 1013.2
20260504192317 26 122 4.8 14.5 0.00 0.00 0.00 66 1013.2
20260504192217 26 88 4.8 14.5 0.00 0.00 0.00 66 1013.2
20260504192119 26 94 3.2 12.9 0.00 0.00 0.00 66 1013.2
20260504192102 26 265 4.8 12.9 0.00 0.00 0.00 66 1013.3
20260504192017 26 154 3.2 12.9 0.00 0.00 0.00 66 1013.2
20260504191943 26 134 4.8 12.9 0.00 0.00 0.00 66 1013.3
20260504191812 26 202 4.8 12.9 0.00 0.00 0.00 66 1013.3
20260504191712 26 173 4.8 12.9 0.00 0.00 0.00 66 1013.3
20260504191612 26 189 4.8 12.9 0.00 0.00 0.00 66 1013.3
20260504191511 26 123 4.8 14.5 0.00 0.00 0.00 65 1013.3
20260504191409 26 113 6.4 14.5 0.00 0.00 0.00 65 1013.3
20260504191338 26 147 6.4 14.5 0.00 0.00 0.00 65 1013.3
20260504191306 26 287 6.4 14.5 0.00 0.00 0.00 65 1013.3
20260504191207 26 175 6.4 14.5 0.00 0.00 0.00 65 1013.3
20260504191104 26 171 6.4 14.5 0.00 0.00 0.00 66 1013.3
20260504191004 26 205 6.4 14.5 0.00 0.00 0.00 65 1013.3
20260504190903 26 151 4.8 14.5 0.00 0.00 0.00 66 1013.4
20260504190835 26 170 4.8 14.5 0.00 0.00 0.00 66 1013.4
20260504190803 26 206 4.8 14.5 0.00 0.00 0.00 65 1013.4
20260504190700 26 102 4.8 14.5 0.00 0.00 0.00 65 1013.4
20260504190559 27 104 4.8 14.5 0.00 0.00 0.00 64 1013.4
20260504190553 26 97 4.8 14.5 0.00 0.00 0.00 66 1013.5
20260504190500 27 92 4.8 14.5 0.00 0.00 0.00 64 1013.4
20260504190437 26 195 4.8 14.5 0.00 0.00 0.00 66 1013.5
20260504190259 26 90 4.8 12.9 0.00 0.00 0.00 65 1013.4
20260504190201 26 104 4.8 12.9 0.00 0.00 0.00 67 1013.4
20260504190100 26 40 4.8 12.9 0.00 0.00 0.00 68 1013.4
20260504190000 26 272 4.8 12.9 0.00 0.00 0.00 65 1013.5
20260504185857 26 63 4.8 12.9 0.00 0.00 0.00 65 1013.5
20260504185828 26 96 4.8 12.9 0.00 0.00 0.00 65 1013.5
20260504185757 26 167 4.8 12.9 0.00 0.00 0.00 66 1013.5
20260504185657 26 134 4.8 12.9 0.00 0.00 0.00 66 1013.5
20260504185557 26 103 4.8 11.3 0.00 0.00 0.00 66 1013.5
20260504185546 26 167 4.8 9.7 0.00 0.00 0.00 65 1013.5
20260504185454 26 118 4.8 9.7 0.00 0.00 0.00 66 1013.5
20260504185435 26 117 4.8 9.7 0.00 0.00 0.00 65 1013.5
20260504185254 26 80 4.8 9.7 0.00 0.00 0.00 65 1013.5
20260504185148 26 217 4.8 14.5 0.00 0.00 0.00 65 1013.5
20260504185048 26 128 4.8 14.5 0.00 0.00 0.00 65 1013.6
20260504184945 26 109 4.8 16.1 0.00 0.00 0.00 65 1013.6
20260504184845 26 71 4.8 16.1 0.00 0.00 0.00 65 1013.6
20260504184824 26 101 4.8 16.1 0.00 0.00 0.00 65 1013.6
20260504184744 26 131 4.8 20.9 0.00 0.00 0.00 65 1013.6
20260504184636 26 156 6.4 20.9 0.00 0.00 0.00 65 1013.6
20260504184533 26 278 6.4 20.9 0.00 0.00 0.00 65 1013.6
20260504184427 26 182 4.8 20.9 0.00 0.00 0.00 65 1013.6
20260504184327 26 76 4.8 20.9 0.00 0.00 0.00 65 1013.6
20260504184305 26 153 4.8 20.9 0.00 0.00 0.00 65 1013.6
20260504184227 26 185 4.8 20.9 0.00 0.00 0.00 65 1013.6
20260504184127 26 190 4.8 20.9 0.00 0.00 0.00 64 1013.6
20260504184027 26 89 4.8 20.9 0.00 0.00 0.00 64 1013.6
20260504183927 26 164 4.8 20.9 0.00 0.00 0.00 64 1013.6
20260504183805 26 123 4.8 20.9 0.00 0.00 0.00 64 1013.6
20260504183727 26 82 4.8 20.9 0.00 0.00 0.00 66 1013.6
20260504183627 26 87 4.8 12.9 0.00 0.00 0.00 66 1013.6
20260504183528 26 216 4.8 12.9 0.00 0.00 0.00 65 1013.7
20260504183428 26 22 4.8 12.9 0.00 0.00 0.00 65 1013.7
20260504183327 26 116 4.8 12.9 0.00 0.00 0.00 65 1013.7
20260504183305 26 181 4.8 12.9 0.00 0.00 0.00 65 1013.7
20260504183225 26 178 4.8 12.9 0.00 0.00 0.00 65 1013.7
20260504183122 26 163 4.8 12.9 0.00 0.00 0.00 66 1013.7
20260504183022 26 63 4.8 12.9 0.00 0.00 0.00 65 1013.7
20260504182922 26 97 4.8 12.9 0.00 0.00 0.00 64 1013.7
20260504182822 26 146 4.8 12.9 0.00 0.00 0.00 64 1013.7
20260504182805 26 92 4.8 12.9 0.00 0.00 0.00 64 1013.7
20260504182721 26 211 4.8 12.9 0.00 0.00 0.00 64 1013.8
20260504182622 26 303 4.8 12.9 0.00 0.00 0.00 64 1013.8
20260504182522 26 63 4.8 12.9 0.00 0.00 0.00 64 1013.8
20260504182421 26 115 4.8 12.9 0.00 0.00 0.00 64 1013.8
20260504182319 26 159 4.8 12.9 0.00 0.00 0.00 65 1013.8
20260504182304 26 135 4.8 12.9 0.00 0.00 0.00 66 1013.8
20260504182218 26 343 4.8 12.9 0.00 0.00 0.00 66 1013.8
20260504182118 26 158 4.8 12.9 0.00 0.00 0.00 65 1013.8
20260504182016 26 178 4.8 12.9 0.00 0.00 0.00 65 1013.8
20260504181916 26 227 4.8 12.9 0.00 0.00 0.00 65 1013.8
20260504181809 26 64 4.8 11.3 0.00 0.00 0.00 63 1013.8
20260504181756 26 111 4.8 11.3 0.00 0.00 0.00 63 1013.8
20260504181707 26 80 4.8 11.3 0.00 0.00 0.00 63 1013.8
20260504181607 26 33 3.2 11.3 0.00 0.00 0.00 64 1013.8
20260504181507 26 157 3.2 11.3 0.00 0.00 0.00 64 1013.8
20260504181407 27 252 3.2 16.1 0.00 0.00 0.00 64 1014.0
20260504181307 27 171 4.8 16.1 0.00 0.00 0.00 64 1014.0
20260504181256 27 176 3.2 16.1 0.00 0.00 0.00 64 1014.0
20260504181205 27 209 4.8 16.1 0.00 0.00 0.00 63 1014.1
20260504181105 27 129 4.8 16.1 0.00 0.00 0.00 65 1014.0
20260504181005 27 54 4.8 16.1 0.00 0.00 0.00 64 1014.1
20260504180905 27 210 4.8 16.1 0.00 0.00 0.00 64 1014.1
20260504180801 27 184 3.2 16.1 0.00 0.00 0.00 65 1014.1
20260504180754 27 186 3.2 16.1 0.00 0.00 0.00 65 1014.1
20260504180701 27 93 3.2 16.1 0.00 0.00 0.00 65 1014.1
20260504180558 27 78 3.2 16.1 0.00 0.00 0.00 64 1014.1
20260504180458 27 33 4.8 16.1 0.00 0.00 0.00 63 1014.1
20260504180355 27 106 3.2 12.9 0.00 0.00 0.00 63 1014.1
20260504180256 27 29 3.2 12.9 0.00 0.00 0.00 63 1014.1
20260504180250 27 162 3.2 12.9 0.00 0.00 0.00 63 1014.1
20260504180155 27 130 3.2 12.9 0.00 0.00 0.00 63 1014.0
20260504180051 27 76 3.2 9.7 0.00 0.00 0.00 66 1014.0
20260504175949 27 310 3.2 9.7 0.00 0.00 0.00 64 1014.1
20260504175843 27 150 3.2 11.3 0.00 0.00 0.00 62 1014.1
20260504175743 27 167 3.2 11.3 0.00 0.00 0.00 62 1014.1
20260504175643 27 97 3.2 11.3 0.00 0.00 0.00 63 1014.1
20260504175543 27 196 3.2 11.3 0.00 0.00 0.00 63 1014.2
20260504175440 27 135 3.2 11.3 0.00 0.00 0.00 62 1014.2
20260504175340 27 143 3.2 11.3 0.00 0.00 0.00 62 1014.2
20260504175241 27 178 3.2 11.3 0.00 0.00 0.00 62 1014.2
20260504175237 27 194 3.2 12.9 0.00 0.00 0.00 62 1014.2
20260504175137 26 165 3.2 12.9 0.00 0.00 0.00 60 1014.1
20260504175037 26 265 4.8 12.9 0.00 0.00 0.00 60 1014.1
20260504174938 26 175 4.8 12.9 0.00 0.00 0.00 60 1014.1
20260504174837 26 192 4.8 12.9 0.00 0.00 0.00 60 1014.1
20260504174737 26 233 4.8 12.9 0.00 0.00 0.00 64 1014.1
20260504174634 26 186 4.8 12.9 0.00 0.00 0.00 64 1014.1
20260504174531 26 286 4.8 12.9 0.00 0.00 0.00 64 1014.1
20260504174431 26 185 6.4 12.9 0.00 0.00 0.00 64 1014.1
20260504174329 26 167 4.8 12.9 0.00 0.00 0.00 64 1014.2
20260504174239 26 191 6.4 14.5 0.00 0.00 0.00 64 1014.2
20260504174229 26 190 6.4 14.5 0.00 0.00 0.00 64 1014.2
20260504174128 26 152 6.4 14.5 0.00 0.00 0.00 64 1014.2
20260504174028 26 46 4.8 14.5 0.00 0.00 0.00 65 1014.3
20260504173928 26 143 4.8 14.5 0.00 0.00 0.00 64 1014.4
20260504173828 26 206 4.8 14.5 0.00 0.00 0.00 64 1014.4
20260504173740 26 186 4.8 14.5 0.00 0.00 0.00 65 1014.4
20260504173729 26 159 4.8 14.5 0.00 0.00 0.00 65 1014.4
20260504173629 26 163 4.8 14.5 0.00 0.00 0.00 65 1014.4
20260504173528 26 176 4.8 14.5 0.00 0.00 0.00 65 1014.4
20260504173428 26 122 4.8 14.5 0.00 0.00 0.00 65 1014.4
20260504173328 26 187 4.8 14.5 0.00 0.00 0.00 64 1014.4
20260504173239 26 161 4.8 14.5 0.00 0.00 0.00 63 1014.5
20260504173229 26 94 4.8 14.5 0.00 0.00 0.00 63 1014.5
20260504173128 26 230 4.8 12.9 0.00 0.00 0.00 63 1014.5
20260504173029 26 129 4.8 12.9 0.00 0.00 0.00 62 1014.6
20260504172928 26 137 4.8 12.9 0.00 0.00 0.00 62 1014.6
20260504172829 26 151 4.8 12.9 0.00 0.00 0.00 62 1014.7
20260504172740 26 155 4.8 12.9 0.00 0.00 0.00 62 1014.7
20260504172729 26 40 4.8 12.9 0.00 0.00 0.00 62 1014.7
20260504172629 26 194 4.8 12.9 0.00 0.00 0.00 63 1014.6
20260504172529 26 195 4.8 12.9 0.00 0.00 0.00 63 1014.6
20260504172428 26 149 4.8 12.9 0.00 0.00 0.00 63 1014.6
20260504172325 26 262 4.8 12.9 0.00 0.00 0.00 63 1014.6
20260504172239 26 316 4.8 12.9 0.00 0.00 0.00 64 1014.6
20260504172225 26 207 4.8 12.9 0.00 0.00 0.00 64 1014.6
20260504172122 26 230 4.8 12.9 0.00 0.00 0.00 63 1014.7
20260504172023 26 194 4.8 12.9 0.00 0.00 0.00 63 1014.7
20260504172002 26 156 3.2 12.9 0.00 0.00 0.00 63 1014.7
20260504171920 26 155 3.2 12.9 0.00 0.00 0.00 62 1014.8
20260504171841 26 82 3.2 12.9 0.00 0.00 0.00 62 1014.8
20260504171716 26 178 3.2 12.9 0.00 0.00 0.00 63 1014.7
20260504171617 26 105 3.2 11.3 0.00 0.00 0.00 64 1014.8
20260504171513 26 111 3.2 11.3 0.00 0.00 0.00 64 1014.8
20260504171414 26 283 3.2 11.3 0.00 0.00 0.00 63 1014.8
20260504171313 26 261 3.2 11.3 0.00 0.00 0.00 62 1014.8
20260504171236 26 172 3.2 11.3 0.00 0.00 0.00 61 1014.8
20260504171213 26 149 3.2 11.3 0.00 0.00 0.00 61 1014.8
20260504171114 26 41 3.2 11.3 0.00 0.00 0.00 63 1014.8
20260504171013 26 228 3.2 11.3 0.00 0.00 0.00 63 1014.8
20260504170913 26 232 3.2 11.3 0.00 0.00 0.00 63 1014.8
20260504170813 26 183 3.2 11.3 0.00 0.00 0.00 62 1014.8
20260504170733 26 190 3.2 11.3 0.00 0.00 0.00 64 1014.8
20260504170714 26 318 3.2 11.3 0.00 0.00 0.00 64 1014.8
20260504170614 26 162 3.2 9.7 0.00 0.00 0.00 64 1014.8
20260504170514 26 195 3.2 9.7 0.00 0.00 0.00 64 1014.8
20260504170452 26 168 3.2 9.7 0.00 0.00 0.00 64 1014.8
20260504170414 26 207 3.2 9.7 0.00 0.00 0.00 64 1014.8
20260504170339 26 101 3.2 9.7 0.00 0.00 0.00 64 1014.8
20260504170214 26 110 3.2 9.7 0.00 0.00 0.00 64 1014.8
20260504170114 26 186 3.2 12.9 0.00 0.00 0.00 65 1014.9
20260504160430 25 262 4.8 17.7 0.00 0.00 0.00 68 1015.4
20260504160327 25 195 4.8 17.7 0.00 0.00 0.00 68 1015.4
20260504160227 25 108 4.8 17.7 0.00 0.00 0.00 68 1015.4
20260504160216 25 194 4.8 17.7 0.00 0.00 0.00 68 1015.4
20260504160120 25 241 4.8 17.7 0.00 0.00 0.00 68 1015.4